GFSMW_sfc_30mbdewp_021.txt.gz
Dewpoint
55 56 57 55 57 55 56 57 55 54 55 51 49 46 45 45 45 44 43 45 44 42 41 42 40 39 38 40 38 37 34 35 34 31 31 30 29 27 25 24 23 23 24
51 55 54 54 54 54 56 56 54 54 54 50 47 46 45 44 43 44 43 42 42 41 40 35 32 33 32 33 36 37 35 37 34 31 30 28 29 28 25 24 23 22 24
49 53 53 53 53 53 56 55 54 54 54 50 47 45 44 43 43 42 42 38 34 31 30 30 31 32 31 31 33 37 36 34 32 32 31 28 26 26 26 23 23 23 23
47 52 52 52 52 53 56 56 54 55 54 50 46 44 42 41 42 42 33 27 31 31 32 32 34 35 35 35 38 38 37 35 32 31 30 28 27 25 23 23 23 24 21
44 49 52 52 52 53 55 57 54 54 55 50 47 44 44 43 41 33 26 28 32 32 32 34 34 37 38 38 36 35 35 34 33 32 31 29 27 24 22 20 21 23 22
45 45 51 52 53 55 56 57 55 54 55 51 48 45 45 42 36 27 25 28 31 30 33 34 35 39 38 37 37 36 35 35 34 34 32 29 26 23 23 22 21 21 21
45 44 50 51 52 55 56 56 55 55 54 52 48 45 44 40 33 26 27 29 28 27 30 30 31 37 39 38 38 37 36 36 34 33 32 31 29 27 25 24 22 21 22
44 47 50 52 53 54 56 56 52 50 48 48 46 42 38 34 28 27 28 28 28 28 30 31 31 38 37 37 38 37 35 36 36 35 34 32 30 28 26 23 22 21 21
46 48 51 53 53 54 54 53 50 48 45 44 40 37 34 32 28 28 29 28 29 29 30 30 31 31 32 35 37 37 35 35 35 33 31 31 29 27 28 26 24 22 24
48 51 52 53 54 55 52 49 47 45 43 41 39 37 34 32 30 29 28 28 29 30 30 30 29 29 29 30 32 34 32 29 29 31 30 29 29 30 29 25 24 24 22
49 51 53 53 54 52 47 47 43 41 40 39 39 39 34 33 31 29 29 30 30 30 29 29 28 28 29 30 29 28 27 28 29 30 30 29 29 29 26 24 22 20 18
48 51 52 51 49 46 45 45 42 41 39 38 37 36 35 33 30 29 32 31 28 29 29 28 28 29 29 30 30 29 29 29 29 29 29 28 28 26 23 22 18 17 16
46 50 50 49 48 46 44 44 43 41 40 40 38 35 32 31 31 33 31 30 29 29 28 27 27 27 29 30 30 29 29 29 29 29 29 28 27 25 22 19 17 16 16
45 47 48 48 47 46 44 43 44 42 41 39 37 35 33 32 33 30 30 30 30 29 28 28 28 28 29 30 30 29 28 28 28 29 29 27 24 20 17 17 16 15 15
43 43 45 46 46 46 46 45 43 40 39 38 37 34 36 35 32 32 31 31 30 28 28 28 29 30 30 29 29 28 27 27 26 24 23 21 21 20 18 16 15 17 18
35 38 40 41 41 43 45 45 42 40 39 37 35 36 36 34 34 32 31 31 31 30 30 32 32 31 31 30 30 29 27 26 23 21 22 21 22 22 23 22 22 19 16
33 34 37 40 40 40 43 43 41 40 38 36 36 36 37 34 32 31 32 32 33 36 36 33 30 28 30 30 30 32 27 24 22 21 22 21 18 20 22 23 21 19 18
33 33 33 34 39 43 43 44 40 38 36 36 35 35 33 33 33 32 33 34 36 35 33 31 29 29 29 29 30 31 25 22 21 22 22 20 19 20 19 17 16 16 17
31 31 31 31 35 40 39 36 33 33 34 34 34 33 34 33 34 35 36 37 36 35 31 29 28 28 28 29 31 28 22 21 20 23 22 21 21 21 23 19 17 17 18
31 32 31 31 31 32 32 33 33 33 32 33 33 34 35 37 37 38 37 36 34 30 29 29 29 29 28 29 31 26 22 21 21 23 23 25 22 21 23 21 18 19 19
32 33 33 33 33 34 34 33 33 34 34 36 37 38 38 38 38 37 37 34 30 29 28 27 28 29 29 28 31 28 22 23 22 22 21 22 22 22 23 22 21 21 20
32 32 32 32 33 33 33 33 33 35 36 37 38 39 39 38 37 35 31 29 28 28 27 27 27 27 27 28 28 30 25 23 21 21 22 22 23 23 22 23 24 24 24
32 33 33 33 33 34 34 34 35 36 37 37 37 37 36 34 32 31 30 29 29 27 27 26 26 26 25 27 27 28 29 26 22 22 22 23 23 23 24 25 25 24 22
30 31 31 32 32 32 32 32 31 31 30 30 30 30 30 30 30 30 30 30 29 27 27 27 27 26 26 25 27 27 28 29 27 23 24 24 23 22 23 23 24 23 21
31 31 31 30 30 30 30 30 29 29 29 29 29 29 29 29 28 28 28 29 29 29 28 28 27 27 26 25 26 27 27 28 28 27 24 23 22 20 21 22 21 21 20
31 30 30 29 28 29 29 31 31 30 30 29 29 29 29 28 28 28 28 29 30 30 30 30 29 29 28 28 28 29 30 30 28 25 24 23 22 20 20 19 20 20 18

GFSMW_sfc_30mbdewp_024.txt.gz
Dewpoint
54 54 55 57 58 58 57 57 56 55 55 53 53 52 51 48 47 46 46 47 45 44 43 42 40 39 38 39 37 36 34 35 34 32 30 29 29 25 25 24 23 23 23
54 54 55 56 57 57 56 56 56 55 54 53 49 48 47 45 44 44 44 45 43 42 42 38 37 37 35 34 37 36 36 35 33 32 31 29 29 28 24 24 24 23 24
53 54 55 55 56 56 56 56 55 54 53 51 46 45 44 44 43 42 42 41 39 36 32 31 31 31 31 31 34 36 35 33 31 32 31 29 27 27 27 24 24 24 23
51 53 54 54 54 55 56 56 55 54 54 49 46 44 43 42 42 42 37 32 32 31 32 33 33 34 35 37 37 38 37 35 32 31 30 29 28 27 25 23 23 24 23
48 50 54 54 54 54 55 56 55 54 54 49 46 45 43 43 42 38 30 31 32 32 34 34 36 37 37 36 36 35 34 34 33 32 31 29 28 25 24 21 21 22 23
45 48 52 53 53 53 54 56 55 54 54 51 48 45 45 42 40 34 29 31 31 33 34 35 37 38 37 37 36 35 33 33 33 33 32 29 27 25 23 22 22 22 22
44 45 50 52 52 53 54 56 55 54 55 53 50 46 46 43 40 34 32 31 30 32 32 34 36 37 38 38 37 36 35 35 33 33 32 31 29 27 26 24 24 22 22
43 44 47 51 52 53 54 55 56 55 55 55 52 48 47 44 41 36 32 31 29 30 31 31 33 37 39 38 38 37 36 36 36 34 34 32 31 30 27 25 23 22 22
42 44 45 50 52 53 54 55 56 55 55 54 51 47 46 44 39 37 33 32 29 31 33 31 32 38 37 37 37 37 36 35 35 35 34 32 32 29 27 26 25 23 23
43 45 47 50 52 53 54 55 56 54 52 51 48 46 44 43 40 36 32 31 32 32 31 31 31 31 32 33 36 36 36 34 34 33 32 30 29 28 30 28 26 25 23
45 47 49 51 52 53 54 54 54 52 47 47 46 44 42 42 38 34 32 32 32 31 31 30 31 30 30 31 30 31 30 28 27 29 30 30 30 30 30 26 24 22 20
45 49 51 52 53 53 53 51 49 47 47 46 44 43 40 37 34 32 31 31 31 32 31 30 30 30 30 30 30 29 28 28 28 28 30 29 29 28 26 25 22 20 18
41 49 51 51 52 49 49 48 47 45 43 43 43 41 39 35 33 31 32 33 32 31 30 30 29 29 29 30 31 31 29 29 29 29 29 28 28 27 26 23 21 18 17
42 46 49 50 48 47 47 47 46 44 43 43 41 41 40 36 34 33 34 32 31 30 29 29 29 29 30 31 30 30 30 29 29 29 29 29 28 27 24 21 19 17 16
43 44 46 47 48 48 47 46 45 44 43 42 41 40 39 36 34 33 32 32 31 30 29 30 29 33 35 30 30 30 29 29 28 29 29 28 26 25 21 17 17 16 15
37 38 40 40 41 44 47 46 44 43 42 41 40 39 37 35 34 33 32 31 30 30 29 31 37 38 33 31 31 31 30 28 27 26 24 22 24 25 26 26 21 17 18
32 33 34 36 39 42 43 44 44 41 40 40 39 38 37 35 34 32 31 31 32 36 37 38 38 33 31 30 30 31 32 29 27 25 23 22 21 21 21 24 25 24 22
32 31 32 34 38 42 43 41 40 39 38 37 37 36 35 34 33 33 35 36 37 38 38 38 35 31 29 29 29 29 31 29 27 24 22 22 21 20 20 21 21 19 17
31 31 31 32 33 34 34 35 34 35 35 35 34 34 34 35 35 36 37 38 39 38 37 36 31 31 30 29 29 30 30 27 25 23 23 23 21 21 24 20 18 17 17
32 33 33 33 33 33 33 33 33 33 33 34 35 36 37 38 38 38 38 38 37 36 33 32 31 29 28 29 30 31 28 25 23 22 23 25 22 23 24 24 21 18 17
32 33 33 33 33 34 34 33 34 34 36 37 38 39 39 39 39 38 38 37 35 34 31 28 28 28 28 28 28 30 27 25 24 23 23 23 26 26 25 25 22 20 19
32 32 32 32 33 34 34 34 35 37 38 38 38 39 39 38 38 36 35 32 30 28 28 28 27 27 27 27 27 29 31 26 24 23 24 23 24 25 25 24 24 23 23
32 32 32 33 33 34 35 34 34 36 35 34 33 32 31 31 31 30 29 29 29 28 28 27 27 27 28 27 27 28 29 31 26 25 24 24 24 26 26 26 24 24 24
31 32 31 30 30 30 30 30 29 29 29 28 29 29 29 29 29 29 28 28 28 27 27 27 27 27 28 27 27 26 27 28 29 27 25 25 25 25 25 23 25 26 24
31 30 29 29 28 29 30 30 30 30 29 29 28 27 27 26 26 27 28 28 28 29 28 28 28 28 27 28 28 28 27 26 27 28 26 24 24 24 24 24 23 23 23
30 29 28 29 30 30 29 29 29 27 25 25 25 25 25 25 25 25 23 25 27 27 29 30 30 30 30 30 31 31 30 29 28 27 26 25 24 23 24 23 23 23 22

GFSMW_sfc_30mbdewp_027.txt.gz
Dewpoint
50 53 54 55 55 57 57 57 57 59 58 56 55 56 56 55 55 54 53 51 47 46 46 44 44 42 41 40 40 38 38 36 37 33 31 30 30 28 25 26 25 25 25
52 54 54 55 56 56 57 58 57 58 58 56 55 56 55 52 52 49 50 49 47 45 45 43 42 41 40 40 40 39 37 35 37 33 33 30 30 29 26 26 25 27 25
53 54 54 55 55 56 58 58 57 57 57 56 52 50 51 48 46 45 46 46 45 44 42 41 39 37 34 34 38 39 37 33 34 36 30 28 25 30 30 27 26 28 26
53 53 54 54 55 56 58 58 57 56 56 54 52 51 53 50 47 45 44 43 42 39 35 34 35 35 35 36 38 39 38 36 33 33 31 33 32 25 23 27 27 27 26
50 52 54 54 55 56 57 58 57 56 56 53 52 52 51 50 47 43 40 38 37 35 33 36 37 37 37 39 40 39 38 38 36 33 33 33 30 30 25 19 22 24 25
48 50 53 54 55 56 57 58 57 56 55 53 51 50 49 47 44 40 38 36 34 35 35 36 37 38 38 40 40 40 37 35 34 32 32 27 25 24 24 23 23 24 24
46 48 50 52 54 55 56 57 57 56 55 54 52 51 49 46 45 41 39 37 36 36 36 38 38 38 39 40 39 38 36 36 33 33 31 31 29 29 28 27 23 24 24
43 45 47 51 53 54 55 56 56 56 55 54 53 50 49 47 47 44 40 37 37 37 37 37 37 39 41 40 39 37 37 38 36 35 34 33 33 32 30 28 26 23 22
40 44 46 49 52 53 54 55 56 56 55 55 55 53 51 50 48 46 42 41 38 36 37 35 35 39 40 40 40 38 38 38 38 37 37 36 35 34 32 31 28 25 23
39 43 45 47 51 53 54 55 55 55 56 56 56 54 52 51 49 45 42 40 37 34 35 34 36 38 39 39 39 38 38 37 37 36 35 35 33 32 31 28 29 29 26
42 44 45 47 49 52 53 55 55 55 55 55 55 53 51 50 48 45 43 39 36 36 35 33 35 35 34 34 34 34 35 36 35 33 31 31 32 31 31 31 30 27 25
39 47 48 50 51 52 53 54 55 55 54 52 53 52 51 49 46 44 41 38 37 36 33 34 32 31 31 32 31 32 30 32 30 30 31 30 30 31 31 30 28 26 24
39 46 50 51 52 53 52 52 52 52 51 50 49 48 48 46 45 44 41 38 35 34 33 32 30 31 31 31 33 33 32 31 31 30 30 30 31 30 29 28 27 25 22
42 45 49 50 50 50 51 51 50 48 46 47 47 46 46 44 43 41 37 35 35 33 32 31 30 32 32 33 36 35 32 32 32 32 31 31 31 29 29 28 26 23 20
42 44 46 49 49 49 49 48 48 47 46 45 45 45 45 43 40 36 35 35 33 32 32 32 32 35 37 39 39 35 32 32 31 32 32 31 31 30 29 26 24 20 19
36 38 40 41 42 43 46 48 47 46 45 44 43 43 42 39 37 36 35 34 33 32 31 32 37 40 40 39 37 33 31 31 31 30 31 30 31 31 30 26 22 20 19
33 34 36 39 42 43 44 45 45 43 43 42 42 40 39 37 36 35 34 32 32 34 37 40 39 38 40 36 32 31 30 31 30 30 30 28 25 27 25 27 27 25 21
32 33 34 35 36 38 39 39 40 40 39 38 38 38 37 36 34 34 36 38 39 40 39 38 38 38 35 32 34 31 30 30 30 30 30 29 26 24 24 22 22 23 23
32 33 34 34 35 35 36 36 36 36 36 35 35 35 35 35 36 37 39 39 39 39 38 38 38 34 35 37 31 30 30 30 29 29 28 28 27 25 24 22 22 21 19
33 33 34 34 34 34 34 34 34 35 35 36 36 37 37 37 38 38 39 39 39 38 38 36 35 36 36 32 30 30 30 30 30 29 27 26 25 25 25 24 23 21 18
33 33 34 34 34 35 35 35 35 36 37 38 38 38 38 38 39 39 38 37 36 35 34 32 32 31 31 30 30 29 30 30 29 28 27 26 27 26 26 26 26 25 22
32 33 33 33 34 35 35 35 37 38 38 38 37 36 36 35 35 34 33 32 31 31 30 31 30 30 30 29 29 29 29 29 30 29 28 28 27 27 27 27 27 26 24
32 33 33 33 33 33 34 33 32 31 29 29 29 29 29 29 29 29 29 29 29 29 29 29 29 29 30 30 30 30 29 29 30 31 30 28 27 27 28 28 26 27 25
32 31 30 29 28 29 30 29 29 30 30 29 28 27 26 26 25 25 25 24 25 25 25 25 26 27 28 28 29 30 31 31 30 30 31 29 27 27 27 26 28 26 26
29 28 28 29 30 29 29 28 28 28 26 24 23 22 21 19 18 18 19 19 20 23 22 22 23 23 23 23 23 23 24 26 29 31 31 31 29 27 26 26 27 27 28
28 29 29 29 27 25 24 24 23 22 21 19 18 19 19 19 17 16 14 18 19 20 20 19 19 19 20 19 19 19 20 22 25 25 25 28 29 28 28 27 27 27 27

GFSMW_sfc_30mbdewp_030.txt.gz
Dewpoint
46 49 52 53 53 54 53 54 54 56 58 56 52 50 54 57 59 59 57 55 52 50 50 48 47 44 42 41 41 36 35 33 33 32 33 32 33 32 29 29 28 28 28
45 48 49 50 51 53 55 55 55 56 57 54 51 51 53 56 58 58 57 55 52 50 49 47 45 43 43 41 38 35 31 31 34 35 34 34 33 31 31 28 28 30 28
45 47 49 50 51 51 53 53 54 55 56 54 51 55 56 56 57 56 56 55 52 50 48 47 44 44 41 37 36 35 32 33 35 37 35 32 27 28 29 31 29 29 28
45 46 50 51 52 52 52 53 53 54 56 56 53 54 53 53 55 56 55 52 51 49 46 45 44 42 35 32 32 33 36 36 36 35 34 33 28 21 21 29 29 30 27
44 46 47 50 53 53 53 55 55 55 55 56 55 54 54 54 54 54 51 50 48 47 44 42 40 37 33 33 32 37 39 39 35 34 34 31 28 27 24 22 19 22 24
44 45 47 49 50 53 54 55 56 55 55 56 57 55 54 55 54 51 48 46 44 43 41 39 38 36 33 36 40 42 41 38 35 33 29 25 26 26 25 22 20 20 22
43 45 46 48 50 52 54 55 56 55 55 56 57 57 56 56 54 51 48 45 43 41 41 39 38 38 38 41 41 42 41 36 35 31 28 30 28 25 23 23 21 21 22
41 44 46 47 49 52 54 56 55 55 55 56 56 56 56 55 53 51 48 46 43 42 41 40 41 37 41 41 42 43 38 37 34 34 34 29 29 28 27 25 23 22 19
33 38 42 46 49 51 54 56 55 56 55 56 57 56 56 55 53 51 49 48 44 42 42 43 40 39 42 42 44 40 37 35 36 36 35 32 28 30 29 28 25 23 21
37 37 40 42 46 50 52 55 56 55 55 56 57 57 56 55 54 52 49 46 44 42 41 40 38 41 42 44 41 37 36 35 36 35 32 31 28 27 28 25 24 24 23
37 42 42 43 44 48 51 53 55 55 55 56 57 57 57 56 53 52 50 48 47 43 40 39 41 41 42 39 37 35 31 36 34 34 31 29 27 25 25 25 25 24 24
37 43 45 46 47 49 50 51 53 53 54 55 56 57 57 55 54 53 52 49 47 41 39 41 39 35 36 34 33 30 31 33 35 31 30 27 25 27 28 27 26 25 24
36 43 48 48 49 50 51 52 53 53 54 55 54 55 55 54 53 51 49 46 42 41 41 38 33 33 32 30 32 33 36 39 35 30 28 28 28 28 28 28 26 24 23
39 41 47 49 50 51 52 53 53 54 53 52 52 52 52 52 51 50 48 46 43 41 37 35 33 33 30 29 34 39 40 39 34 31 31 30 29 28 29 28 27 26 25
42 45 46 49 50 51 51 51 52 51 50 49 49 49 50 49 48 47 46 44 42 38 35 34 34 33 33 38 41 40 39 36 32 32 31 31 31 31 30 28 27 27 25
41 42 42 42 42 44 46 48 48 48 47 47 46 46 46 44 43 41 39 37 35 34 34 33 36 38 40 40 40 39 38 35 32 31 30 29 31 32 33 32 30 27 26
36 37 39 41 42 43 44 44 44 45 45 44 43 43 42 41 40 38 35 34 33 35 34 37 37 38 38 40 38 36 34 36 35 32 30 28 26 28 30 32 31 27 22
34 36 37 38 39 40 40 41 40 41 40 40 40 40 40 38 36 35 35 36 37 38 38 39 37 36 37 39 35 37 37 37 31 29 27 26 26 26 27 29 28 26 26
35 36 37 37 37 37 38 38 38 37 37 37 37 37 37 37 37 36 37 38 37 37 37 37 37 37 39 36 37 38 33 29 28 27 27 26 26 27 29 27 27 27 26
35 35 36 36 36 36 37 37 37 37 37 37 37 37 37 37 37 38 38 38 38 38 38 38 37 37 37 37 36 32 31 29 28 28 27 27 28 28 29 27 27 27 26
34 35 35 35 36 36 37 36 36 36 36 37 37 37 37 38 38 38 38 37 36 36 35 34 32 31 31 30 31 31 30 30 30 29 28 28 29 28 29 27 28 29 28
34 34 34 35 35 35 36 35 36 36 36 36 36 35 35 33 32 31 29 27 27 28 28 30 29 30 30 30 31 31 31 30 30 30 31 31 31 30 28 29 27 28 28
33 34 34 34 35 35 35 34 34 32 31 28 27 27 27 27 27 28 27 26 26 27 27 25 25 24 25 24 27 24 24 24 25 27 30 31 31 31 30 29 28 28 28
32 32 31 30 30 30 29 29 28 27 27 26 26 25 24 23 22 20 17 17 19 19 17 18 18 18 19 19 21 19 19 19 21 22 24 25 25 31 32 32 30 29 29
31 30 30 30 28 28 28 27 26 25 24 23 21 20 19 14 13 12 15 15 18 19 17 18 17 19 19 19 18 18 19 19 20 21 24 23 22 21 27 30 32 33 31
29 29 29 27 26 25 24 23 22 22 20 17 15 17 16 15 11 10 11 19 19 18 18 18 18 17 17 16 16 16 17 17 17 17 20 24 25 25 22 23 29 32 32

GFSMW_sfc_30mbdewp_033.txt.gz
Dewpoint
42 48 50 48 50 51 51 51 51 52 54 56 52 47 46 49 54 58 58 56 54 54 53 51 52 50 46 44 44 40 38 34 34 35 37 37 37 36 33 32 30 29 29
40 45 49 49 49 50 51 51 51 52 53 51 50 46 46 48 53 58 57 56 56 53 53 52 51 49 45 44 43 38 35 34 36 37 38 38 37 35 35 32 30 30 31
40 43 45 48 50 50 50 51 51 52 53 51 50 46 46 50 51 55 57 57 56 54 52 52 50 48 45 45 43 39 35 33 37 39 39 36 34 31 33 34 32 30 32
40 41 44 45 48 49 51 51 51 51 52 52 49 46 48 48 51 54 55 56 57 55 52 51 51 48 46 43 42 38 35 37 36 40 39 38 37 29 26 31 32 33 32
39 40 43 45 46 48 49 51 51 51 51 53 52 49 50 51 51 53 56 57 56 55 53 50 50 48 46 40 39 35 37 40 42 40 40 38 34 32 29 27 27 30 28
39 38 41 45 47 48 50 51 51 50 51 52 54 54 52 52 50 54 55 54 54 53 52 48 48 47 42 38 37 39 42 43 42 42 40 33 29 29 30 29 27 24 23
38 37 38 41 44 48 51 51 51 51 51 52 54 55 54 54 53 54 55 52 51 49 48 47 46 45 42 44 45 43 45 45 44 42 37 30 32 32 27 25 24 23 24
37 38 38 39 42 45 50 53 52 52 51 54 54 55 57 57 57 57 55 53 50 48 50 49 47 43 43 44 45 45 44 45 44 40 34 35 33 30 28 27 25 25 23
33 37 38 40 42 44 48 53 53 52 53 53 55 56 57 58 57 58 56 53 49 50 49 46 44 43 43 45 45 45 45 44 42 37 37 37 34 30 30 30 27 24 22
34 33 36 40 42 44 47 53 54 53 53 55 57 57 58 57 58 57 55 52 50 48 45 44 43 42 44 45 45 45 45 42 37 38 39 37 34 31 28 27 25 24 23
34 39 38 38 41 45 48 50 54 55 54 55 56 58 58 58 58 57 54 52 50 47 45 45 44 43 43 43 43 45 40 36 36 37 38 36 34 31 27 25 25 24 23
32 39 42 42 42 44 47 49 53 54 54 55 56 58 59 57 56 55 54 53 52 50 48 45 43 43 41 42 42 40 35 34 36 42 40 37 32 29 28 27 27 26 27
30 38 43 45 45 47 48 50 52 52 53 54 54 56 58 57 56 55 55 54 52 49 44 42 42 41 41 40 41 37 32 39 41 40 39 34 32 30 29 29 29 29 28
29 34 43 46 47 48 50 51 53 53 53 53 54 54 55 55 54 54 52 50 45 42 41 42 41 40 38 36 33 37 40 41 41 41 39 34 32 31 31 31 31 30 30
35 38 42 46 49 51 52 52 53 53 52 52 52 53 53 52 51 51 50 49 46 44 42 39 38 36 35 35 36 40 41 40 40 40 36 34 34 32 32 31 32 31 30
38 42 46 48 49 50 50 51 50 49 49 48 47 48 48 47 47 46 44 43 42 40 37 36 35 35 36 41 40 40 38 39 39 38 36 36 35 34 32 31 32 32 32
39 41 41 42 43 44 44 45 45 45 45 44 44 45 44 43 42 40 39 37 36 36 36 36 37 37 40 39 39 38 37 37 37 38 39 37 33 30 28 27 31 32 32
38 39 39 39 40 41 41 41 41 41 41 41 42 42 41 40 39 37 36 35 35 35 35 35 34 35 36 38 38 37 37 38 38 39 35 29 28 27 27 27 27 29 31
36 37 38 38 38 38 38 38 38 38 38 38 38 39 39 38 37 37 38 38 37 37 37 36 35 36 37 39 37 37 38 35 32 30 28 27 27 28 27 28 29 29 29
36 37 37 37 37 37 37 37 37 37 37 38 38 38 38 38 38 38 38 39 39 39 38 39 39 38 38 37 37 35 31 30 30 29 29 29 29 29 28 29 30 30 29
36 36 36 36 37 37 37 37 37 36 37 37 37 38 38 38 38 38 38 38 37 37 37 35 32 31 30 30 32 31 31 30 28 29 30 31 32 32 32 33 32 30 31
35 36 36 36 37 37 36 36 36 37 37 37 36 36 36 34 34 31 29 26 27 28 28 30 29 30 30 29 27 25 23 21 22 22 24 25 25 26 26 28 31 33 30
35 35 36 36 36 36 36 35 35 35 34 31 28 26 25 25 25 25 25 23 24 24 25 21 22 20 22 21 24 21 20 19 20 21 22 22 22 23 23 23 24 31 32
34 35 35 35 34 34 33 33 32 30 29 27 25 25 23 21 20 17 14 15 20 19 17 17 18 17 20 19 21 18 17 17 18 19 21 21 22 24 25 26 25 27 29
34 34 32 32 31 31 30 28 27 26 24 23 21 21 19 15 13 15 15 16 19 18 17 18 17 20 19 19 17 16 16 17 17 19 20 20 20 20 21 23 24 25 26
33 32 32 31 29 28 26 25 24 23 21 19 19 20 18 14 10 11 19 18 17 18 18 17 17 17 17 15 14 15 15 15 17 15 16 17 18 18 18 18 20 23 24

GFSMW_sfc_30mbdewp_036.txt.gz
Dewpoint
49 50 50 52 51 49 49 49 50 51 52 52 52 54 49 51 52 56 58 59 59 57 56 56 54 52 51 49 48 45 39 37 37 36 37 38 39 38 37 36 34 33 32
45 48 49 51 52 51 52 54 55 54 53 55 56 54 50 49 51 58 59 59 60 56 56 56 54 53 52 50 48 44 41 40 39 40 41 40 40 39 39 37 34 33 32
43 47 48 50 51 53 53 53 54 55 55 56 55 54 50 49 49 58 59 59 58 57 55 55 55 54 53 50 48 45 42 39 40 41 40 39 38 37 39 38 35 35 34
40 45 47 50 50 52 53 52 51 51 53 53 51 51 47 45 49 56 58 58 58 58 56 55 55 54 51 50 49 46 42 40 40 42 42 40 40 36 31 37 36 36 35
40 41 45 48 51 52 53 53 52 52 53 54 54 52 48 47 49 54 55 57 58 58 57 56 54 53 51 48 47 44 41 41 43 42 43 44 45 39 34 31 33 35 34
39 41 43 45 48 51 52 54 52 52 52 53 53 54 51 51 52 54 55 57 58 58 57 54 54 50 48 48 48 48 43 45 44 45 44 45 43 35 34 33 32 32 32
39 40 42 43 45 48 51 53 53 52 52 53 55 54 55 53 53 54 56 57 57 55 54 49 48 49 50 50 49 46 45 46 44 46 47 47 40 34 34 30 28 27 28
39 40 39 43 45 47 50 51 52 52 51 53 54 56 55 56 56 56 58 57 56 53 51 50 49 50 49 47 46 45 45 45 45 46 46 44 39 35 33 30 29 28 29
38 39 39 40 45 48 50 52 52 52 51 52 54 55 58 57 58 58 58 58 55 51 50 51 51 49 47 45 45 45 45 46 46 46 45 40 39 37 35 33 32 30 28
30 34 39 40 42 45 51 54 53 52 52 53 55 56 58 58 60 59 58 57 52 50 51 51 49 46 44 46 45 45 46 46 45 44 40 40 39 38 38 32 31 31 29
34 35 36 37 40 44 45 52 54 54 53 54 56 58 58 57 56 59 59 54 53 52 50 49 47 44 44 45 44 44 44 44 43 40 41 40 41 40 37 33 31 29 28
31 37 39 39 40 41 45 52 54 54 55 55 59 58 59 60 59 58 56 55 53 52 49 47 45 44 45 44 43 43 42 42 40 41 40 40 40 40 38 34 30 29 30
27 37 41 43 42 43 45 47 52 54 55 55 58 58 59 58 57 56 55 54 53 52 50 47 45 44 43 42 42 43 43 41 41 41 40 39 41 39 37 34 32 31 31
26 31 41 44 46 47 49 50 52 53 53 54 58 58 58 57 56 56 54 49 46 44 44 44 43 43 43 42 42 43 42 41 41 40 39 40 41 37 35 34 33 32 32
27 31 41 45 48 50 51 53 54 55 54 54 55 55 56 55 55 53 51 48 45 43 42 42 42 42 41 41 40 40 41 39 38 39 40 40 39 37 36 34 33 33 33
30 35 38 47 49 51 52 53 53 53 53 52 52 52 52 51 51 50 50 48 45 44 42 41 40 39 38 36 40 40 39 38 39 39 39 39 39 39 38 36 35 33 32
36 41 45 49 50 51 51 50 50 49 48 47 48 47 46 45 44 43 42 41 40 39 38 38 38 39 39 39 39 38 38 38 37 37 38 38 38 38 36 34 32 31 32
40 43 44 45 46 46 46 46 45 45 45 44 44 44 43 42 40 38 37 37 37 37 37 37 37 38 39 39 38 37 38 38 38 38 38 38 38 33 31 31 29 29 29
41 41 42 42 42 42 42 41 41 41 41 41 41 41 40 39 38 37 37 38 37 37 37 36 36 36 38 38 38 38 38 37 35 33 32 32 31 32 33 31 32 32 32
39 39 39 39 39 39 39 38 38 38 38 39 39 39 39 39 39 40 40 39 39 37 37 39 39 38 39 38 34 33 32 31 29 28 28 28 28 28 28 27 25 25 27
38 38 38 38 38 38 38 38 38 38 38 39 38 38 39 40 39 38 39 38 38 38 38 37 37 36 33 30 26 25 25 22 22 23 23 24 24 25 23 22 21 20 22
37 37 37 38 38 38 38 37 37 37 38 39 38 38 38 37 38 37 37 35 33 32 32 31 31 32 30 26 24 22 20 20 20 20 21 22 21 20 20 23 24 25 25
36 36 37 38 38 37 37 36 37 37 37 37 36 34 31 29 28 27 26 26 28 27 23 22 23 24 25 27 23 20 18 18 19 20 20 19 19 20 22 24 23 25 26
35 36 37 37 37 37 36 37 36 35 32 29 28 26 24 22 21 17 18 25 23 21 19 21 20 22 22 21 20 18 18 18 19 18 18 19 21 21 19 19 19 19 21
35 36 36 36 36 35 35 33 32 30 29 26 24 22 20 17 18 18 20 21 17 20 20 20 21 21 20 18 17 16 16 17 17 17 18 18 19 17 16 16 16 17 18
35 36 36 34 33 31 30 29 28 27 24 23 23 23 20 16 16 19 18 20 18 18 17 17 17 18 17 15 15 14 15 15 16 17 16 16 16 16 15 14 15 15 15

GFSMW_sfc_30mbdewp_039.txt.gz
Dewpoint
52 51 51 51 49 49 49 51 50 49 49 46 47 47 48 51 52 53 57 58 57 58 57 56 55 51 50 49 47 46 40 38 39 36 36 37 38 37 37 35 33 34 36
49 50 51 50 49 46 46 47 47 47 49 46 45 45 51 51 51 52 57 58 59 59 57 56 53 51 51 51 48 44 40 38 37 35 41 39 39 39 38 38 36 34 33
48 49 51 50 48 46 45 44 45 50 48 49 47 51 55 50 50 53 55 58 57 54 57 56 54 52 52 51 49 44 40 38 41 40 40 38 38 38 39 39 37 34 33
48 49 51 50 48 49 49 50 50 53 51 51 52 54 53 51 48 50 57 58 58 56 57 57 55 54 53 52 49 46 43 41 38 42 42 42 40 37 35 37 37 35 34
48 47 49 52 51 50 50 53 53 54 52 52 54 54 52 51 49 52 56 57 58 58 58 57 56 54 53 51 49 46 44 45 45 44 42 44 45 42 39 35 33 37 36
45 48 48 50 52 52 52 52 53 54 54 54 54 54 53 49 47 49 57 57 58 58 58 57 56 54 49 49 48 47 46 48 47 45 45 44 44 43 41 37 34 32 34
41 45 47 49 50 51 52 52 51 51 52 52 53 53 53 51 48 49 54 57 57 58 58 56 54 51 49 48 49 49 47 46 46 45 46 48 47 46 42 38 31 28 29
40 42 45 47 49 50 51 52 52 52 52 52 53 53 54 53 51 53 55 57 57 58 57 53 51 50 51 50 49 48 46 46 45 45 47 47 47 46 37 32 31 30 29
40 40 42 45 47 49 50 52 53 52 52 53 53 54 53 54 56 56 57 56 58 56 54 51 49 49 49 49 47 46 46 45 45 45 46 46 45 41 38 36 34 31 28
39 40 41 43 44 46 49 51 51 52 52 52 53 55 56 55 57 56 54 55 56 55 53 52 51 50 48 47 46 45 46 45 45 45 45 44 42 41 39 38 36 33 31
35 38 41 41 44 45 46 49 51 53 54 54 53 54 57 57 57 58 58 58 54 53 52 52 51 48 46 46 45 45 45 43 44 44 43 41 42 40 40 40 37 33 31
35 36 38 39 41 44 47 49 52 55 51 52 55 56 58 58 58 58 57 56 52 52 53 52 50 47 45 45 44 44 44 42 43 43 42 40 41 40 41 40 38 35 31
35 38 40 40 41 43 48 50 54 55 54 54 54 59 59 58 58 57 56 54 53 53 50 48 46 45 45 44 44 43 43 43 43 42 41 40 39 38 40 39 36 35 33
31 40 41 42 43 46 50 54 55 57 58 59 58 58 57 56 56 55 54 52 51 50 50 47 46 45 44 44 43 43 43 42 42 41 40 38 38 40 40 37 36 35 34
27 39 42 44 47 50 53 54 55 56 58 58 57 56 56 55 54 52 49 47 46 45 45 44 44 44 43 43 43 43 42 41 40 40 39 38 40 40 38 37 36 36 34
29 33 45 48 50 51 53 53 53 54 55 54 54 55 54 54 53 51 48 46 44 43 42 42 43 42 42 42 42 42 41 39 37 38 39 39 39 39 39 38 38 37 36
32 37 47 49 51 53 53 52 51 50 50 50 50 49 48 47 47 48 47 45 43 41 40 40 39 39 38 39 40 39 38 38 37 37 37 38 38 38 36 32 32 32 32
39 46 49 51 51 51 50 48 47 47 47 46 45 45 43 42 40 40 39 39 38 37 38 38 39 38 38 39 38 37 37 37 37 38 38 36 33 32 30 28 27 27 27
44 46 47 47 47 47 46 45 45 44 44 44 43 42 40 38 37 37 36 36 36 36 36 37 38 37 38 38 37 37 37 37 33 29 28 28 26 29 27 24 23 20 17
43 43 43 43 44 43 43 42 42 42 42 41 41 40 39 38 38 38 37 38 38 37 38 38 38 38 38 36 36 34 30 27 23 23 24 24 24 25 24 21 20 20 21
41 41 41 40 40 40 40 39 39 39 40 40 40 40 40 40 39 39 39 38 38 37 36 36 37 32 28 26 25 23 21 20 19 20 20 22 23 21 19 21 23 23 25
39 39 39 38 39 39 39 38 38 39 39 39 40 39 39 38 39 38 38 38 37 35 33 31 30 27 25 24 23 21 20 20 18 19 21 21 18 19 22 23 21 19 21
38 38 38 38 38 38 38 37 38 39 39 39 38 38 38 38 37 37 34 32 32 28 26 28 28 25 24 22 20 18 18 18 19 19 18 18 19 21 22 19 16 18 19
37 38 38 38 37 38 38 38 38 38 37 36 34 32 29 25 22 26 24 23 21 21 22 22 23 24 20 19 18 17 17 18 18 18 18 18 20 21 18 17 16 17 17
37 38 38 37 37 37 37 37 35 32 30 27 24 23 21 19 21 23 19 17 20 22 20 21 21 20 19 17 16 16 17 17 17 17 17 18 17 16 15 15 15 15 14
37 37 37 35 34 33 32 32 31 28 25 23 22 21 20 18 18 19 18 19 18 18 19 20 19 19 17 15 16 15 16 15 17 17 16 14 13 13 13 13 13 12 12

GFSMW_sfc_30mbdewp_042.txt.gz
Dewpoint
52 52 52 50 51 51 50 51 51 52 52 51 52 51 49 47 47 47 49 55 54 57 56 55 55 53 50 48 47 45 43 41 40 36 36 37 38 38 37 35 41 42 44
51 51 51 50 50 50 50 50 51 51 51 51 51 49 49 48 49 49 51 55 58 57 57 55 55 53 50 49 48 45 41 38 39 35 38 35 39 39 38 37 35 35 41
50 50 50 50 49 49 49 50 50 50 49 49 47 47 48 50 49 50 51 55 58 58 58 57 55 53 51 50 48 45 42 39 39 40 37 39 38 38 39 39 38 35 35
50 50 49 49 49 48 49 49 50 49 49 48 46 45 46 46 48 50 51 54 57 58 57 57 56 53 52 51 50 46 42 40 39 41 43 42 41 37 36 37 39 38 35
49 50 50 49 49 46 46 46 48 47 47 48 46 45 45 46 52 50 50 54 56 57 56 56 56 54 53 52 51 47 43 43 43 45 43 43 43 40 40 39 37 37 37
48 49 50 50 48 47 45 45 44 44 49 48 48 48 48 51 53 51 50 52 55 57 57 56 57 55 55 54 52 48 45 46 46 45 44 44 43 43 42 40 39 37 36
48 48 50 50 48 47 47 46 47 47 50 51 50 50 52 54 52 51 51 52 55 56 57 57 57 56 54 53 52 49 48 47 46 45 45 46 46 46 44 42 41 37 32
47 48 48 50 50 48 48 48 49 50 50 52 51 51 52 53 54 52 50 55 56 57 58 58 57 56 53 51 51 49 48 47 47 46 46 47 47 47 44 40 38 34 30
42 46 47 49 50 51 50 49 50 51 51 51 52 52 53 54 54 53 53 55 57 57 58 57 56 54 52 51 50 48 47 47 47 47 47 46 47 47 45 39 36 34 32
41 42 46 48 49 50 52 52 51 51 51 52 53 53 53 54 55 55 55 56 56 56 56 55 53 52 51 50 49 48 47 46 46 46 45 45 46 44 41 41 40 37 35
39 41 42 46 47 49 50 52 52 52 52 53 53 53 53 54 55 56 56 56 56 56 55 53 51 50 49 49 48 47 46 46 45 45 45 44 42 42 42 41 41 40 36
32 38 41 43 45 46 48 50 52 53 53 54 54 55 56 57 57 58 57 57 57 57 56 53 52 50 48 47 46 46 46 45 43 43 43 42 42 40 41 41 40 39 37
35 37 39 41 43 44 45 46 50 52 53 55 56 57 57 58 58 59 58 58 57 57 53 53 51 49 48 47 45 45 45 44 43 43 42 41 41 39 39 40 40 37 36
36 37 39 40 42 45 47 46 49 52 53 54 54 55 57 58 58 58 57 57 55 53 52 50 49 48 46 45 44 44 43 43 43 42 41 41 38 38 39 39 37 36 35
29 38 39 41 46 51 53 53 50 52 54 54 54 52 56 58 57 55 54 53 52 51 50 49 47 45 45 44 43 43 43 42 42 42 40 39 39 39 39 38 38 37 37
27 34 41 43 49 53 54 55 55 57 57 57 57 57 56 55 53 51 50 49 48 47 46 45 44 44 43 43 43 43 42 41 41 39 39 38 38 39 36 32 31 31 31
27 29 41 45 51 53 53 54 55 55 55 55 55 54 53 52 50 49 47 45 44 43 43 43 43 42 42 42 42 42 41 39 38 37 36 38 36 33 30 29 28 27 27
29 35 43 48 52 53 52 51 52 52 51 51 50 50 49 48 48 45 43 41 41 40 40 40 40 39 39 40 40 38 37 36 37 37 33 30 27 30 27 24 22 21 20
33 41 48 51 51 50 48 49 48 47 47 47 46 45 44 43 42 41 40 38 38 37 38 38 38 37 38 38 37 36 36 34 30 27 26 25 24 26 25 21 19 20 21
43 47 49 49 48 47 46 46 45 45 44 43 41 40 39 39 38 38 37 37 37 37 37 37 37 37 37 37 37 36 31 27 23 22 21 22 23 23 20 20 22 22 23
46 46 47 48 45 45 45 44 43 42 41 40 39 39 39 38 37 37 37 37 37 36 36 34 31 29 29 28 27 25 23 21 19 17 18 21 20 19 21 24 23 22 20
43 44 44 43 41 42 42 41 41 40 40 40 39 39 39 39 38 38 38 37 36 34 32 29 26 25 24 24 23 22 21 19 16 18 20 19 19 21 23 22 18 17 18
41 41 41 40 39 40 40 39 39 40 40 39 39 39 39 38 38 37 37 35 33 31 29 27 24 22 21 20 19 19 18 18 18 19 18 19 20 21 21 17 16 16 18
39 39 39 38 38 38 39 39 39 39 39 38 37 36 32 30 29 28 31 30 28 28 29 26 24 21 19 18 18 17 18 18 18 17 18 18 19 19 17 17 15 16 15
38 38 38 38 38 38 38 38 38 37 34 31 27 24 25 24 20 19 20 22 23 24 24 24 24 20 19 17 17 16 17 17 18 17 17 17 14 13 13 14 14 14 13
38 38 37 37 36 35 34 33 32 30 27 24 23 22 22 20 16 16 19 21 21 22 22 22 20 20 18 17 16 15 16 16 15 16 14 11 10 11 12 12 12 11 11

GFSMW_sfc_30mbdewp_045.txt.gz
Dewpoint
52 52 50 51 52 52 52 53 53 54 54 53 52 52 51 49 47 47 49 51 54 56 56 55 55 54 52 50 49 46 43 41 40 37 36 36 37 37 37 41 45 46 47
51 51 51 50 51 51 51 51 52 52 52 52 50 51 49 49 47 48 49 51 53 54 56 55 55 54 51 49 47 45 42 41 40 36 36 34 36 39 38 37 39 42 44
50 51 50 50 50 50 50 51 51 51 51 51 51 49 49 49 47 47 48 50 54 55 56 56 55 54 52 50 48 46 42 40 39 40 37 37 35 39 39 39 36 37 39
50 51 51 50 49 50 50 50 51 51 50 50 49 48 47 46 45 45 47 49 53 55 57 57 56 55 53 51 49 48 44 41 39 40 42 42 41 38 36 37 39 38 36
49 50 50 50 50 49 49 50 50 50 50 49 48 47 47 47 47 48 49 50 51 55 57 57 57 56 54 52 51 49 47 44 42 40 43 43 42 40 38 37 38 38 39
49 50 50 50 50 49 49 49 50 50 49 49 48 47 46 46 46 48 49 50 52 54 56 56 57 56 55 53 53 52 49 46 45 44 43 42 42 41 40 39 38 37 38
48 49 49 49 49 48 48 48 48 48 48 49 48 48 46 46 46 48 50 51 51 53 55 56 56 56 56 55 54 52 50 48 46 45 45 45 44 45 44 41 41 40 38
47 48 49 50 49 48 46 46 46 47 47 48 48 48 48 47 47 48 51 52 52 53 55 56 57 57 57 55 54 53 51 50 48 46 46 46 46 46 45 43 41 38 35
47 48 49 50 50 48 47 45 45 45 45 46 49 48 48 48 49 50 52 53 53 55 56 57 57 58 58 56 54 53 51 49 48 47 47 47 48 47 46 42 37 35 34
44 47 48 49 50 49 47 47 45 44 44 45 46 50 50 50 50 53 54 54 53 56 56 57 57 56 55 54 54 52 50 48 48 48 48 47 47 46 45 42 40 38 37
42 44 47 48 50 51 49 47 47 46 46 48 49 50 51 51 53 54 54 55 55 56 56 56 55 55 54 51 50 49 48 47 47 47 47 46 46 44 42 42 41 40 39
39 42 43 47 48 49 51 50 49 48 49 51 51 52 53 54 54 55 56 56 56 57 56 55 55 52 51 50 49 48 47 47 46 46 46 44 43 42 42 41 40 40 40
34 38 41 42 46 48 49 50 52 52 51 52 53 54 54 55 55 55 56 56 57 57 57 57 55 52 51 49 48 47 47 47 46 45 44 43 41 40 40 40 40 38 37
32 34 36 41 43 46 48 49 51 52 53 53 53 54 55 55 55 56 56 56 57 57 56 55 53 52 50 49 47 47 46 45 45 44 43 42 41 39 39 39 38 37 36
29 36 38 39 42 44 45 46 47 50 53 53 54 54 55 56 57 57 57 57 57 57 54 53 51 49 48 47 46 45 44 44 43 43 42 41 39 40 39 38 36 35 34
26 33 37 40 41 44 46 49 47 48 52 53 54 55 55 56 57 56 55 54 53 52 51 49 47 47 46 46 44 44 43 43 42 41 40 40 39 36 33 32 30 30 28
27 27 33 40 42 47 50 51 53 54 53 54 54 54 55 55 54 52 51 49 48 47 47 46 46 45 44 43 43 43 42 41 41 40 37 37 34 31 29 26 24 23 23
30 28 28 40 46 52 53 54 55 56 56 56 55 55 53 51 49 48 47 45 45 45 44 43 43 43 43 42 42 41 39 38 37 37 35 30 29 27 25 22 19 18 19
31 30 30 40 51 52 52 53 53 53 53 52 51 51 50 48 47 45 44 42 42 41 41 41 41 41 40 40 39 38 36 32 29 27 26 25 25 25 22 19 17 20 22
32 36 45 50 51 50 51 50 50 50 50 49 47 48 47 46 44 42 40 38 38 38 38 37 37 37 37 37 36 35 31 28 24 22 22 23 22 20 20 21 22 22 22
41 46 49 49 49 49 49 48 47 47 45 44 43 43 43 42 40 38 37 37 37 36 34 32 31 31 31 32 32 30 28 25 21 19 19 19 19 20 23 24 22 20 18
44 47 48 47 46 46 46 45 44 42 41 40 40 39 39 38 37 37 37 36 35 32 30 28 26 25 25 26 25 23 21 21 18 18 18 18 20 22 23 20 18 17 18
45 46 45 43 43 43 44 42 40 40 40 39 39 38 38 38 37 36 36 34 33 31 28 27 24 22 21 21 21 19 18 18 18 19 18 19 21 21 19 16 15 17 16
42 42 42 41 40 40 41 40 40 39 39 38 37 34 33 31 31 31 32 31 31 30 27 25 23 20 18 17 18 18 18 19 18 18 19 19 19 16 16 15 15 15 14
39 40 39 39 38 39 39 39 39 38 34 31 29 28 26 25 23 24 25 25 26 29 27 25 22 20 18 18 18 18 18 19 19 18 18 13 13 12 13 13 12 12 11
38 38 38 37 36 36 35 34 34 31 29 27 26 23 21 19 19 19 20 23 25 25 25 24 22 21 18 17 17 18 17 17 18 16 13 10 9 11 11 11 10 10 9

GFSMW_sfc_30mbdewp_048.txt.gz
Dewpoint
51 51 51 53 53 54 54 54 55 56 55 55 53 53 52 49 48 50 54 55 54 55 54 54 54 53 51 50 49 46 44 42 39 36 36 36 37 37 38 43 45 47 49
51 51 50 52 52 52 53 53 54 54 55 55 55 52 53 50 48 48 50 54 55 56 56 55 55 54 53 51 49 47 44 42 40 36 36 34 35 38 38 37 40 44 46
50 50 50 50 51 51 52 52 53 53 54 54 54 50 50 49 48 48 48 50 52 54 55 55 55 54 53 51 49 47 44 43 41 38 37 36 35 37 40 39 38 38 42
49 51 50 49 49 50 51 52 52 53 52 52 51 49 49 49 48 46 47 48 50 51 53 55 55 55 53 52 50 48 44 42 41 39 40 41 40 37 37 38 39 38 37
47 50 51 50 50 50 51 51 51 52 52 51 50 49 49 48 47 46 46 47 49 51 52 54 55 55 54 53 52 50 46 44 43 42 42 42 42 40 38 37 38 39 39
47 49 51 51 50 50 50 50 50 51 51 50 50 49 48 48 47 47 46 47 49 51 52 54 55 55 55 54 53 52 50 49 47 46 45 42 41 40 39 39 38 38 38
47 49 50 50 50 49 49 50 50 50 50 50 49 49 48 48 47 47 47 47 48 49 52 54 54 55 55 55 54 53 52 51 49 48 46 47 45 45 43 41 40 40 39
46 48 50 49 50 49 49 49 49 49 50 50 49 49 48 47 47 47 47 48 50 51 52 53 54 54 55 55 54 54 53 52 51 50 49 48 47 46 44 43 42 40 39
45 47 49 49 49 49 48 48 48 49 49 49 49 49 48 48 47 47 48 50 52 52 53 54 54 54 55 55 55 54 54 53 53 52 50 48 48 47 46 43 42 42 39
44 47 48 49 50 49 48 48 48 47 48 48 48 48 49 49 49 49 49 50 52 53 53 54 55 55 56 56 56 56 55 54 53 51 49 48 48 48 47 45 41 40 39
41 45 48 49 50 50 48 47 47 47 47 47 48 48 49 49 50 49 50 52 53 53 54 54 55 56 56 56 55 55 53 51 51 50 49 48 48 47 46 44 42 40 39
38 42 46 48 49 50 49 48 47 46 46 46 47 48 49 51 50 50 50 51 51 54 54 55 55 55 56 53 53 52 51 50 49 48 48 47 47 45 44 43 42 41 40
31 41 44 47 48 49 50 49 48 47 46 47 47 49 49 50 51 51 51 51 53 54 55 55 55 55 53 52 51 51 50 49 48 47 46 45 45 43 43 42 40 40 38
26 34 41 43 47 48 49 50 50 49 49 48 49 49 50 50 50 51 51 52 54 55 55 56 56 56 52 51 50 50 48 47 46 46 46 45 44 42 41 40 39 37 36
24 30 34 40 42 46 48 49 50 51 51 50 50 50 51 52 52 52 53 54 56 56 56 56 56 53 51 50 49 48 47 46 45 45 44 43 41 40 40 38 37 36 34
26 25 32 37 38 42 45 48 49 50 52 52 52 52 52 53 54 54 54 55 56 56 56 55 52 50 50 48 47 47 45 45 44 42 41 40 39 37 35 34 32 31 29
28 27 29 35 39 41 43 45 47 48 51 52 53 53 53 54 54 55 56 56 55 53 53 51 49 48 47 46 45 45 44 43 42 40 39 37 34 32 30 28 25 22 23
30 30 28 30 37 41 46 48 50 49 49 51 53 54 54 55 55 54 53 51 49 49 48 47 46 45 44 43 42 42 41 40 39 38 36 33 30 28 26 22 19 18 19
32 32 32 30 34 43 49 51 53 53 52 53 54 54 54 51 50 50 48 46 46 45 44 43 43 43 41 41 39 38 35 32 30 29 30 28 27 26 24 19 16 19 22
29 30 33 37 40 47 51 51 53 54 53 52 51 51 51 49 47 45 43 42 41 39 38 37 37 38 37 37 36 34 31 28 25 24 25 25 22 21 22 18 19 20 21
28 37 43 43 46 50 51 50 51 51 49 48 48 47 47 45 42 40 39 38 36 34 32 31 30 31 33 33 33 32 30 27 24 21 20 20 20 22 24 24 22 19 18
41 46 46 47 49 50 49 48 46 44 44 43 43 41 40 39 38 38 37 35 33 31 29 28 26 26 26 27 27 27 25 24 22 19 18 20 21 23 22 19 18 18 18
44 46 45 44 45 46 46 44 41 42 42 41 39 38 38 37 37 36 35 33 32 30 29 27 25 23 23 22 21 20 20 20 18 19 19 20 22 21 18 16 16 17 16
42 42 42 42 42 42 43 42 42 41 40 37 35 34 33 32 32 32 33 32 31 29 28 26 24 20 19 19 19 19 19 19 19 20 20 20 18 16 15 15 15 14 13
40 40 40 39 39 40 40 40 39 37 34 32 30 29 29 28 27 27 28 29 30 30 29 26 23 21 19 17 18 18 18 20 20 20 17 15 14 13 13 14 12 12 11
37 36 35 34 33 33 34 34 33 33 31 29 28 27 26 25 24 24 24 28 28 27 25 24 23 21 20 18 19 19 20 21 20 17 14 11 11 11 12 12 11 10 9

GFSMW_sfc_30mbdewp_051.txt.gz
Dewpoint
51 51 51 53 53 55 55 56 56 56 56 56 55 54 54 54 55 56 55 55 53 53 53 51 51 49 48 50 50 47 45 43 41 38 38 38 40 41 42 44 45 48 51
51 51 51 52 53 54 54 55 56 56 56 56 56 55 54 52 53 54 56 55 54 54 54 54 53 52 51 51 52 49 46 45 42 40 39 38 38 38 39 39 42 45 47
50 51 50 50 52 53 54 54 55 55 56 56 56 54 51 50 49 51 53 54 56 53 54 56 56 56 55 51 52 51 49 46 45 43 42 39 40 39 40 40 40 41 43
49 51 51 50 51 52 53 53 54 55 55 56 54 53 51 50 48 48 51 51 53 55 56 57 57 56 56 55 54 53 51 50 47 44 42 44 43 41 40 41 41 41 41
49 50 51 50 50 51 52 53 53 54 55 54 54 52 52 51 50 48 48 49 50 52 53 55 56 56 56 56 56 54 52 51 50 47 45 43 43 43 42 44 40 41 40
47 49 51 51 50 50 51 52 52 53 53 54 53 52 51 49 48 48 47 48 48 50 52 52 54 55 56 56 56 56 54 52 50 49 48 45 44 42 41 41 43 39 41
47 48 50 50 50 50 49 51 51 51 53 52 52 52 51 51 50 49 49 48 49 50 51 52 54 54 55 56 57 56 55 54 53 51 50 49 48 47 44 43 42 41 42
46 48 49 50 50 50 50 51 51 51 52 52 51 51 51 51 50 50 49 50 50 50 51 52 53 53 54 55 56 56 56 56 55 54 52 51 51 51 50 46 43 42 43
42 46 49 50 50 50 50 51 51 51 51 51 52 51 51 50 50 50 50 50 50 50 51 52 52 54 54 55 55 55 55 55 55 55 53 52 52 52 51 48 46 45 42
40 45 48 50 51 50 50 50 51 50 51 51 52 51 51 51 51 51 50 50 50 51 51 52 53 53 54 55 55 56 56 56 55 54 53 52 53 52 50 47 46 45 45
37 45 47 49 50 50 50 50 50 50 50 51 52 51 51 51 51 50 50 50 50 50 50 51 52 53 54 55 56 56 56 55 55 55 53 52 52 50 49 47 44 44 43
33 41 46 49 50 50 50 49 49 49 50 50 51 51 51 51 51 50 50 51 50 50 51 51 52 53 54 55 56 56 55 54 53 53 51 51 50 49 48 46 44 43 42
27 38 44 47 49 50 50 49 49 49 49 49 50 50 50 51 50 50 51 51 51 52 52 52 53 53 53 55 56 55 54 52 53 52 51 50 48 47 45 44 43 42 41
28 28 39 45 47 49 50 50 49 49 49 48 49 49 50 50 51 51 51 51 51 51 52 53 53 54 54 55 54 54 54 53 52 51 49 48 47 46 44 43 42 40 38
29 28 30 38 45 48 50 50 50 50 49 48 47 48 49 49 49 51 52 52 52 52 53 53 54 55 55 55 54 53 51 50 48 47 47 46 46 44 43 41 39 38 36
29 30 29 33 39 44 48 49 51 51 50 49 48 48 49 49 50 50 51 52 52 52 54 54 54 55 55 54 51 51 50 49 46 44 43 43 42 40 39 38 36 36 33
30 31 31 30 35 39 44 47 49 51 52 51 50 50 50 51 51 51 51 52 52 53 55 55 55 55 54 50 48 48 48 46 44 42 40 38 36 35 32 30 27 26 24
30 31 31 32 33 38 42 44 46 50 51 52 52 52 52 52 52 53 53 54 54 55 55 54 52 50 48 46 45 44 43 42 41 40 38 35 32 30 28 24 21 19 19
34 32 33 33 33 36 40 44 46 47 49 51 52 52 53 53 54 54 53 51 50 48 46 46 45 44 42 41 41 40 37 35 34 33 32 31 30 30 26 22 20 20 21
41 38 32 34 35 35 46 47 48 49 48 49 51 53 54 52 52 50 47 44 43 40 38 38 39 38 37 38 37 35 33 30 29 29 28 27 27 28 25 21 18 19 19
39 36 36 36 40 46 49 49 52 52 52 51 51 51 51 49 45 43 41 39 36 34 33 32 31 33 35 35 34 33 31 28 26 24 23 25 26 25 24 23 20 19 17
43 44 45 46 48 50 50 50 49 47 48 47 45 44 43 42 41 39 36 35 33 31 30 29 27 27 29 31 30 29 28 27 24 20 21 24 25 25 21 19 21 19 17
42 44 45 46 47 48 47 45 44 44 43 42 40 40 39 38 37 36 34 33 32 31 29 28 26 24 23 24 25 25 24 22 20 21 22 24 23 20 19 18 18 17 15
41 42 42 42 42 43 44 44 43 42 40 38 36 35 34 34 34 34 33 32 31 30 29 27 24 22 21 20 20 20 21 21 21 21 21 20 19 17 16 15 15 13 12
38 39 39 37 38 38 39 39 39 37 35 33 32 31 30 29 29 29 30 30 31 32 30 27 25 23 20 19 19 19 19 20 21 20 18 16 15 13 13 13 11 12 11
32 31 31 32 32 32 32 33 34 34 33 31 31 30 29 28 28 27 26 28 27 26 25 24 23 24 23 24 25 24 23 20 19 17 16 15 14 13 12 12 12 13 12

GFSMW_sfc_30mbdewp_054.txt.gz
Dewpoint
47 49 51 52 54 55 57 57 56 56 57 56 56 56 55 54 55 54 55 56 51 50 48 45 49 48 48 47 48 46 44 41 41 37 39 40 42 42 41 42 43 44 47
47 49 51 52 53 54 55 57 56 56 56 56 56 56 55 53 54 53 54 55 55 51 50 48 48 47 48 51 51 49 47 44 43 41 41 41 41 41 42 41 42 42 43
46 48 50 51 53 53 54 56 56 56 56 56 57 56 56 55 53 52 53 54 55 51 50 51 49 49 48 50 52 52 50 47 47 46 45 43 42 42 42 42 41 42 43
46 47 49 50 51 52 54 55 56 56 56 57 55 54 53 52 53 52 51 52 54 53 51 52 52 53 51 50 51 52 52 51 48 47 47 48 47 44 43 43 43 43 43
46 47 49 50 51 51 53 53 55 56 56 56 55 54 53 52 52 52 52 54 54 53 52 52 54 55 55 55 55 54 55 53 53 50 48 48 48 48 46 45 46 45 44
45 47 49 50 50 51 52 53 54 55 55 55 55 54 53 51 51 51 51 53 53 55 55 54 56 56 56 56 56 56 56 56 54 53 52 50 48 47 47 45 46 46 47
43 46 48 49 49 51 51 52 52 53 55 55 55 54 53 53 52 50 50 49 51 51 52 54 53 54 55 55 55 56 56 56 55 55 53 53 51 51 50 48 46 47 49
43 44 47 49 50 51 51 51 51 51 53 55 55 55 54 53 52 51 49 48 48 49 51 51 52 52 52 52 53 53 54 54 55 55 55 53 53 53 52 48 48 46 47
40 42 45 48 50 50 51 51 50 50 51 53 55 55 54 54 52 51 51 50 49 49 50 51 51 50 50 51 52 52 52 53 54 54 55 55 55 56 54 53 51 48 47
31 37 43 47 49 50 51 52 51 49 50 52 53 53 54 54 54 53 52 51 52 52 51 52 53 52 52 52 52 53 52 52 54 54 55 56 56 55 54 53 53 51 49
32 38 42 46 49 50 51 52 52 50 49 51 52 52 53 53 54 54 53 53 53 52 52 52 52 52 52 52 52 53 53 53 54 56 56 55 55 54 53 53 51 50 49
31 34 43 46 48 49 50 51 51 50 50 50 51 53 53 53 53 53 53 54 53 53 53 52 52 51 51 51 51 52 52 52 53 54 56 55 54 53 52 51 50 48 48
28 30 39 45 47 48 49 50 51 51 50 50 51 52 53 53 53 53 53 52 52 52 52 51 51 50 50 50 52 53 53 53 53 55 55 53 54 52 51 49 47 46 44
27 28 30 40 45 47 48 49 50 51 51 50 51 51 52 53 53 53 52 53 52 51 51 51 50 50 50 51 51 52 53 53 54 54 55 54 53 51 49 47 45 44 42
28 29 30 31 37 44 48 49 49 50 51 50 50 51 52 52 51 51 51 51 52 51 51 50 50 51 51 52 52 52 54 54 54 54 54 53 51 49 47 45 43 41 40
28 29 29 31 32 38 45 47 49 50 50 50 50 50 51 51 51 51 51 51 51 51 51 51 50 51 52 53 53 55 55 54 54 51 49 48 47 46 44 43 42 41 39
32 31 31 32 33 35 43 45 47 49 50 50 50 49 50 50 50 51 50 50 51 52 51 51 51 52 52 53 53 53 54 53 51 48 44 42 41 40 37 36 34 32 31
40 40 38 36 33 34 36 40 42 47 50 50 49 49 49 49 50 50 50 50 51 52 52 53 53 54 54 53 52 49 49 47 45 43 41 39 37 35 33 30 26 24 23
41 41 40 40 39 34 34 38 40 43 47 49 49 49 50 50 50 51 51 53 53 54 53 52 53 52 47 45 44 44 41 39 37 37 36 34 32 32 30 25 22 22 23
41 40 41 42 38 35 34 36 40 41 44 47 48 50 51 51 51 52 54 51 48 43 40 39 40 40 39 39 39 38 35 32 31 30 31 32 30 28 26 24 23 24 23
41 42 44 44 43 40 40 39 40 41 44 46 49 50 52 53 54 49 45 41 38 36 34 33 33 34 35 35 35 35 33 30 29 28 28 29 29 28 26 23 23 24 21
40 42 44 45 46 48 48 45 45 51 52 52 50 49 47 45 43 41 39 37 35 33 31 30 28 29 31 32 32 31 30 30 26 25 27 28 28 26 25 24 22 20 19
39 41 42 43 44 45 48 48 48 47 46 44 42 41 40 39 39 38 36 34 33 31 29 28 26 25 26 28 29 28 27 27 25 25 27 28 26 23 23 22 20 19 17
36 36 38 38 37 38 40 43 43 42 40 38 37 36 36 35 35 34 34 33 31 30 28 26 25 24 24 24 25 25 24 24 25 27 26 22 22 22 20 18 18 16 13
32 31 32 32 33 35 36 37 38 37 35 34 33 32 31 30 28 29 30 30 32 31 28 26 25 23 22 23 23 23 23 23 23 23 23 23 20 18 16 14 13 13 13
30 29 29 29 29 29 30 32 35 35 33 31 31 30 29 28 27 26 25 28 28 27 27 26 25 25 25 26 26 25 24 24 25 23 21 20 19 18 18 19 19 17 15

GFSMW_sfc_30mbdewp_057.txt.gz
Dewpoint
44 45 50 49 52 55 57 57 57 57 57 56 56 56 56 57 57 57 52 53 50 50 50 48 52 51 47 45 47 44 43 41 41 38 38 40 41 42 41 42 43 44 47
43 46 49 50 52 54 56 57 56 57 56 56 56 55 55 56 56 56 57 53 52 50 50 49 50 52 48 49 50 48 44 41 41 37 37 38 39 42 44 43 43 45 44
42 45 48 51 52 53 55 57 56 56 56 56 57 56 55 55 54 53 54 55 55 51 50 51 51 51 51 52 53 52 49 45 45 44 42 40 38 41 44 46 45 46 45
41 44 47 50 51 52 54 56 56 56 56 57 56 55 54 52 52 52 51 50 54 54 51 51 52 52 51 51 54 53 52 50 47 49 48 50 49 46 44 45 46 46 45
40 43 46 49 51 51 54 55 56 56 56 56 56 55 54 53 51 51 51 51 54 56 54 52 53 53 53 53 53 54 55 53 51 49 49 49 49 50 48 47 46 46 46
38 42 45 48 50 50 52 55 56 56 56 56 55 55 54 53 52 52 52 52 53 55 55 52 53 55 56 56 55 55 55 56 53 53 52 51 49 48 48 48 47 48 48
34 41 44 46 48 50 51 53 54 55 56 56 55 55 54 54 53 52 51 51 53 54 55 55 53 55 57 57 56 57 57 57 56 54 55 54 52 51 49 50 48 47 50
35 40 44 46 47 50 51 51 52 52 55 56 55 55 55 54 53 53 52 52 52 53 55 55 55 56 57 57 56 56 56 55 56 56 54 55 52 52 51 50 50 49 49
34 38 41 45 48 49 51 51 50 51 53 55 55 55 55 54 53 53 53 52 52 52 54 55 56 56 56 56 56 56 55 55 56 56 56 55 53 52 53 53 53 51 48
28 34 39 42 47 49 50 52 50 49 50 53 55 55 55 54 54 53 53 53 52 52 52 54 54 54 54 55 55 54 54 54 54 54 54 54 54 53 55 55 55 54 52
29 31 34 39 45 48 49 52 51 48 48 51 53 55 55 56 56 55 55 54 54 53 51 51 52 52 52 53 53 52 52 52 53 53 53 53 54 54 56 56 55 53 52
27 30 35 40 43 47 49 51 52 50 48 49 52 54 56 56 56 56 56 56 54 54 53 51 51 51 51 52 52 52 51 52 52 52 53 53 54 55 56 55 54 53 52
26 27 31 40 44 46 48 49 52 51 50 49 50 54 55 55 55 56 56 56 56 55 54 53 52 51 52 52 52 52 52 52 52 53 53 53 55 55 55 54 52 52 51
26 26 27 30 39 45 47 48 49 52 51 50 50 51 54 54 55 56 56 56 56 55 55 54 53 53 53 52 52 51 52 52 52 54 53 53 55 55 54 53 52 50 47
30 31 31 30 31 37 44 47 48 50 52 51 50 51 53 54 54 55 55 55 55 54 54 54 54 54 53 52 52 51 51 52 53 53 54 54 55 55 55 53 51 48 45
33 36 37 36 34 33 33 43 46 49 51 52 52 51 52 53 54 54 54 55 55 54 54 53 53 53 53 51 50 51 52 52 52 53 54 54 54 53 52 50 48 46 44
36 38 40 40 40 38 37 36 41 47 49 51 52 51 52 52 53 54 53 53 54 54 53 53 53 53 53 51 49 50 52 54 55 55 55 52 49 48 45 41 38 37 38
39 40 40 41 41 40 39 39 35 40 46 48 50 51 51 52 52 53 53 53 53 53 53 53 53 53 53 51 50 50 53 54 54 54 51 45 42 40 39 35 32 30 30
39 40 41 42 43 43 43 40 36 35 38 45 48 50 50 50 51 51 52 53 53 53 53 54 54 53 53 50 50 49 47 43 41 40 40 39 36 35 34 32 30 29 28
38 39 41 42 44 45 46 45 38 34 36 39 46 49 49 49 50 51 52 53 53 52 46 43 42 41 42 42 44 44 39 36 33 32 33 33 32 31 29 28 27 25 24
37 39 40 42 43 44 44 46 46 43 38 39 41 48 49 49 51 51 52 50 44 39 36 34 34 34 35 36 36 36 34 31 30 29 29 30 31 31 31 30 29 27 27
36 37 38 39 40 39 39 42 47 49 52 51 50 50 50 49 48 45 43 41 38 35 32 31 30 31 32 32 32 32 31 30 28 27 28 29 29 28 28 27 28 26 23
36 35 36 36 34 33 35 37 40 45 47 47 44 42 41 41 40 39 37 35 34 33 31 29 27 27 28 29 30 30 29 28 27 28 28 27 26 26 25 24 21 20 20
34 34 32 32 30 30 31 32 37 39 39 37 36 36 35 34 35 35 35 34 32 31 29 27 25 25 25 26 27 27 28 28 27 26 26 25 25 24 22 22 23 22 18
31 32 30 29 28 28 29 30 34 35 33 32 31 30 29 28 28 28 30 29 30 30 27 26 25 23 23 25 26 25 25 25 25 25 25 24 24 23 22 19 19 19 18
27 27 26 26 26 27 28 29 31 32 31 29 29 28 27 26 26 25 25 28 27 27 27 26 25 26 27 27 27 27 27 27 28 26 24 23 23 23 22 22 20 18 17

GFSMW_sfc_30mbdewp_060.txt.gz
Dewpoint
43 46 47 48 56 57 57 57 57 58 57 57 57 57 56 57 57 57 57 55 53 51 51 50 50 49 47 46 49 49 47 47 46 45 46 45 45 47 46 47 48 49 51
42 45 49 49 53 57 57 57 57 57 57 57 56 56 56 57 57 57 54 52 52 51 50 51 49 49 52 50 49 46 47 47 47 43 42 41 43 43 46 46 45 46 48
41 45 49 50 52 55 57 57 56 57 56 56 56 56 56 56 55 55 54 52 51 50 50 51 52 51 53 50 50 49 49 45 45 43 41 40 40 42 44 45 47 45 49
40 45 48 51 51 53 57 57 56 56 56 56 55 55 54 53 51 54 55 53 55 51 50 52 52 51 51 53 54 53 53 50 46 44 45 48 51 47 45 46 47 48 48
37 44 47 50 52 53 55 56 56 56 56 56 55 55 54 53 50 53 54 53 54 56 52 52 53 52 51 52 54 55 54 54 53 49 49 49 50 51 49 46 46 48 47
33 41 47 49 52 52 55 56 56 55 56 56 56 55 54 53 50 51 50 50 52 56 56 53 53 54 55 53 54 55 56 55 55 54 52 51 50 50 50 49 49 47 48
34 40 46 48 50 52 54 55 55 55 56 55 55 55 55 54 52 51 50 49 49 52 56 55 54 55 55 55 56 56 56 57 55 54 53 54 52 51 51 50 49 49 51
34 37 43 47 49 51 55 54 54 54 55 56 55 55 55 54 53 51 50 50 49 51 53 55 54 55 55 55 57 57 57 56 56 54 53 55 55 53 53 51 50 49 50
31 36 42 47 48 51 52 54 53 54 55 54 56 55 55 54 54 53 52 51 51 52 55 56 55 55 55 56 57 57 56 56 56 55 56 55 54 56 53 53 53 50 48
30 36 39 46 48 51 52 54 53 52 55 55 55 55 55 55 55 54 54 53 52 51 52 55 56 55 54 56 57 57 56 55 55 55 55 55 54 55 54 53 53 53 52
29 30 36 41 48 50 51 53 53 51 52 55 55 55 54 54 55 54 54 54 53 53 52 52 53 54 56 56 56 55 55 55 54 54 54 55 55 54 55 55 54 54 54
28 30 32 39 42 49 50 53 53 52 51 53 56 55 55 55 55 55 54 54 54 54 53 52 52 53 53 54 54 54 54 54 53 54 53 53 53 54 54 55 55 55 54
29 30 31 38 41 45 48 51 53 53 51 51 54 56 56 56 55 55 55 55 54 55 54 52 51 51 52 53 53 53 53 52 52 52 51 52 52 52 53 54 54 55 54
30 34 37 39 39 43 47 49 52 53 53 51 51 54 56 56 56 56 56 56 56 55 54 54 53 52 51 51 51 51 51 51 52 52 52 52 52 52 53 54 55 55 53
32 36 39 40 41 41 41 45 49 53 53 52 51 50 54 56 56 56 56 56 56 56 56 55 54 53 53 51 51 51 51 52 52 52 52 53 53 53 53 54 54 54 52
36 38 39 40 41 41 42 42 43 49 53 53 52 52 51 53 55 55 56 56 56 56 56 56 55 55 54 52 51 52 53 52 52 52 52 52 52 52 52 53 54 54 52
38 39 40 41 42 43 44 43 44 43 46 52 53 53 52 52 53 54 55 55 55 56 56 55 55 55 55 53 51 50 52 52 52 52 52 52 53 53 50 43 40 38 39
37 38 39 40 42 45 46 47 47 47 42 42 50 52 53 53 53 54 54 54 55 55 55 55 55 55 54 53 52 50 51 52 52 53 54 54 51 48 45 39 34 32 32
36 37 39 40 43 44 43 44 45 46 47 46 39 48 51 52 53 53 53 54 54 55 55 55 55 54 54 50 50 48 49 47 42 39 40 41 40 39 38 35 32 29 28
37 37 38 39 41 40 40 41 43 44 48 50 52 51 44 51 52 52 53 54 54 54 53 45 42 43 43 45 48 47 43 39 34 32 32 33 33 34 33 31 28 26 26
37 36 36 37 37 35 35 38 39 41 40 44 49 48 49 51 51 52 53 53 50 42 38 36 34 34 35 36 39 40 37 33 31 30 29 31 32 32 31 30 28 26 27
35 35 34 34 34 32 32 33 34 37 39 42 45 44 43 44 46 47 44 42 40 37 33 32 30 31 32 33 34 33 32 31 29 28 28 29 30 29 28 28 28 28 28
33 33 33 32 31 30 30 31 32 36 36 37 37 37 37 37 39 39 38 37 35 33 31 29 27 27 29 30 31 31 30 29 27 28 28 27 26 26 27 27 27 27 26
29 29 28 28 27 28 28 30 31 34 33 31 31 30 29 30 32 34 34 33 32 30 29 27 25 25 26 27 27 27 26 26 25 25 24 24 24 24 25 24 23 23 23
26 26 25 25 25 26 26 29 30 31 30 29 28 28 27 27 26 27 28 27 29 29 27 26 25 24 24 26 26 25 25 25 25 25 25 25 24 23 22 22 23 23 22
25 23 23 23 24 25 26 28 29 30 28 27 26 26 25 25 25 25 25 28 28 28 28 27 26 27 28 28 28 28 28 28 29 26 24 23 23 22 21 21 20 19 16

GFSMW_sfc_30mbdewp_063.txt.gz
Dewpoint
45 46 52 57 56 57 58 57 57 58 58 58 57 57 57 57 57 57 56 57 56 55 53 55 54 55 54 52 49 49 47 47 49 47 48 48 49 49 49 52 52 53 53
45 46 54 56 56 56 57 57 57 57 57 57 57 57 57 57 57 57 56 56 54 54 51 53 53 52 53 51 49 48 48 47 48 45 46 43 43 46 48 48 49 52 53
45 46 51 55 56 56 56 56 56 57 57 57 57 57 57 57 56 56 56 55 53 52 51 51 52 51 52 51 48 47 46 44 47 45 42 41 40 41 44 46 46 46 48
45 47 48 53 56 56 57 57 56 56 56 57 56 55 54 53 54 54 53 52 52 51 50 50 50 50 52 51 49 47 47 46 44 46 45 45 47 44 44 45 46 46 46
45 48 49 50 54 56 56 56 56 56 56 56 55 54 53 53 53 54 53 52 52 51 50 52 51 51 51 53 50 49 48 51 47 44 43 45 48 50 48 46 45 47 48
45 48 50 50 53 56 56 56 56 56 56 56 55 54 53 52 51 53 54 53 53 52 51 51 53 51 51 51 55 53 52 51 53 51 48 45 44 47 49 48 47 45 47
45 47 50 51 51 55 55 55 55 55 56 56 55 54 54 53 50 52 53 52 52 54 54 52 52 54 53 51 53 55 55 53 53 54 53 52 51 52 51 50 49 48 49
45 47 49 51 51 54 55 55 55 54 56 55 55 55 54 53 51 50 52 52 51 52 54 55 52 53 55 55 55 55 55 56 55 54 55 54 54 53 52 50 49 48 49
43 47 48 50 52 53 55 55 55 54 55 56 55 55 55 53 52 50 50 50 49 50 53 55 54 53 53 55 55 56 55 56 56 56 55 54 53 53 51 53 52 49 46
36 46 48 49 51 53 54 55 54 53 54 55 55 55 55 55 54 53 51 49 49 49 49 54 55 54 53 54 56 55 56 56 55 55 55 55 54 54 55 53 53 53 50
34 38 47 49 51 52 55 54 54 53 53 54 54 55 55 55 54 54 53 52 51 49 49 52 55 55 55 53 54 55 55 55 54 55 55 54 54 54 54 55 53 52 52
37 39 40 43 49 51 53 54 53 53 54 54 54 54 55 55 55 54 54 54 52 51 50 49 52 54 54 54 53 53 55 55 55 54 54 54 54 54 54 54 54 53 53
38 39 40 41 43 48 52 53 53 53 53 55 55 55 54 54 54 55 55 53 54 53 53 52 50 50 51 53 54 54 54 54 55 54 54 54 53 53 54 54 54 54 54
38 39 41 41 42 44 45 50 53 54 52 54 55 55 54 54 53 54 54 54 54 54 53 53 52 52 51 52 51 52 54 55 54 54 54 54 53 53 53 53 53 53 53
39 40 40 41 42 43 45 46 46 48 55 53 53 55 55 55 54 54 54 54 54 54 54 54 53 53 52 51 52 52 52 52 52 52 53 53 52 52 52 52 52 53 53
39 39 39 41 44 45 46 46 46 47 48 54 53 52 55 56 55 55 55 55 55 55 55 53 54 54 53 51 49 51 51 51 51 51 52 52 51 51 50 50 51 53 53
38 39 40 42 43 42 41 41 43 45 46 48 50 53 53 54 55 56 56 55 55 56 55 55 55 54 54 53 51 49 50 51 51 51 51 52 52 52 51 45 43 40 40
37 38 40 42 40 39 39 40 41 43 45 45 45 48 51 52 53 54 55 56 56 56 56 55 55 56 56 54 53 50 50 52 52 53 53 53 52 51 49 43 37 32 32
36 37 39 39 37 35 35 37 38 39 40 40 41 44 48 47 48 52 54 54 55 55 55 56 56 56 56 54 53 51 51 52 45 41 42 46 47 45 43 37 31 28 28
35 35 35 35 33 32 33 34 34 35 35 37 39 42 44 43 44 46 48 54 54 54 55 52 46 45 49 45 49 48 49 42 36 33 34 36 37 36 34 32 28 26 25
33 33 33 31 30 30 31 31 32 32 34 35 38 38 38 39 40 42 43 51 53 47 43 39 36 36 37 38 41 44 44 39 33 31 31 32 32 32 31 30 28 27 28
29 29 30 28 27 28 28 29 30 31 34 34 33 32 32 32 34 38 39 40 40 39 36 34 31 31 32 33 34 35 34 32 30 29 30 30 31 30 29 28 28 28 28
27 27 27 26 26 26 27 27 29 31 31 30 29 28 28 28 29 30 33 35 36 34 33 31 28 28 29 30 31 30 30 29 28 28 29 28 28 27 27 27 27 27 26
25 24 24 24 24 25 26 28 29 30 29 27 27 26 26 26 26 27 28 28 31 31 29 28 26 26 26 25 26 25 25 25 25 24 25 25 24 23 23 24 24 23 23
23 23 23 23 24 25 26 27 29 29 27 25 25 25 25 25 24 25 26 26 28 28 27 27 26 24 23 25 26 26 25 24 24 25 24 23 22 21 21 21 19 20 20
22 22 23 23 25 25 25 26 28 28 26 25 24 25 24 24 23 22 23 27 28 28 28 28 28 28 29 29 29 29 29 28 27 23 21 20 20 20 18 17 16 17 17

GFSMW_sfc_30mbdewp_069.txt.gz
Dewpoint
44 52 56 57 57 57 57 58 57 59 60 59 58 58 57 58 58 58 59 59 60 58 55 54 53 51 46 47 51 50 49 50 51 50 50 51 52 52 53 53 53 53 53
45 53 56 56 56 56 57 57 57 58 59 59 59 59 59 58 58 58 58 59 58 60 56 54 54 51 48 50 51 49 49 49 50 49 48 48 49 51 52 52 52 52 53
44 53 55 55 56 55 56 57 57 57 58 59 58 58 58 58 58 57 57 58 58 58 59 55 54 54 51 52 51 50 49 48 50 49 47 44 46 46 48 50 52 52 52
45 52 55 54 55 55 56 56 56 57 57 58 57 56 56 55 56 57 57 58 57 57 57 58 55 56 55 53 51 50 49 49 48 47 47 46 46 45 44 46 50 52 52
44 50 54 55 55 55 55 56 56 56 57 57 57 56 55 55 56 56 56 57 57 56 55 57 56 54 56 54 53 50 48 49 49 47 46 46 46 47 44 42 44 47 50
43 47 53 55 54 55 55 55 55 55 56 56 56 55 54 54 55 55 55 56 57 56 55 56 55 55 55 55 54 51 49 49 49 48 47 46 46 47 48 46 46 43 45
43 48 53 54 54 54 55 54 54 54 55 55 55 55 54 54 54 54 55 55 55 55 54 54 55 54 54 55 55 54 54 51 49 49 47 47 46 45 48 47 46 46 47
43 48 53 54 54 54 54 53 53 53 55 55 55 55 54 54 54 54 54 55 55 54 53 54 55 55 55 55 55 55 54 54 51 49 49 48 48 48 47 45 45 44 46
43 47 52 53 54 54 54 54 53 53 54 54 55 55 54 53 53 53 53 54 54 53 52 53 54 55 55 54 54 55 54 54 51 49 51 51 50 51 50 49 47 45 43
46 48 51 53 54 54 54 54 54 54 53 54 54 54 54 53 52 52 52 52 53 53 53 52 52 53 54 54 53 52 51 53 52 52 51 52 52 53 54 53 52 51 49
48 50 50 52 54 54 54 54 54 54 53 54 54 54 54 54 53 51 51 52 52 52 52 54 53 52 53 53 52 51 51 51 52 53 53 53 53 53 53 54 53 52 52
48 50 51 52 54 54 54 54 54 54 54 55 54 54 55 54 54 53 52 51 51 52 51 52 54 54 52 52 52 53 53 54 53 52 52 52 53 54 54 54 53 53 53
46 46 46 46 49 53 54 55 54 54 54 55 54 54 55 55 54 54 54 53 51 51 51 51 50 52 53 53 52 51 51 51 53 54 54 53 53 53 53 54 53 53 53
42 41 41 41 43 44 45 46 46 47 48 53 54 54 55 55 55 55 55 54 53 52 51 50 50 50 50 52 53 53 52 51 51 50 51 52 53 53 52 52 53 53 52
39 37 37 37 38 39 40 42 43 43 44 49 49 51 54 55 55 55 55 55 54 53 53 52 51 50 49 49 49 51 52 52 51 51 51 52 52 52 52 52 52 52 52
38 35 33 33 33 35 36 37 38 39 39 40 41 43 45 50 52 55 55 55 55 54 54 53 53 52 52 50 49 48 48 49 51 51 51 51 50 51 50 50 51 50 51
36 33 32 32 32 32 34 34 34 36 36 37 38 39 40 42 42 44 45 52 54 54 54 54 54 53 53 52 50 49 50 49 49 50 50 50 51 51 52 50 49 49 49
33 32 32 31 30 31 32 32 32 33 34 34 34 35 35 36 37 39 41 41 44 46 49 54 54 54 54 53 51 50 51 52 51 51 51 51 51 51 52 52 51 49 49
32 30 29 28 28 29 30 31 31 32 32 31 31 30 31 31 33 35 35 37 41 42 43 45 46 51 54 54 51 49 51 52 52 53 52 52 52 51 50 50 50 43 36
29 28 27 27 27 28 29 29 30 30 29 29 28 28 27 29 30 31 32 34 37 39 40 38 34 33 33 35 35 39 50 52 52 52 52 39 38 43 47 50 49 40 31
27 27 26 26 27 28 28 28 28 27 27 27 27 26 26 27 28 29 30 32 34 35 33 31 30 29 29 31 33 36 42 47 50 41 33 32 32 33 35 36 39 34 28
25 25 25 25 26 27 27 27 26 26 26 26 25 24 25 26 26 27 28 29 30 30 29 27 26 27 27 28 29 31 34 35 32 30 30 30 30 30 30 29 29 28 26
23 24 24 24 25 25 26 26 25 25 24 24 23 23 23 23 25 25 25 26 27 27 26 25 25 25 26 26 27 27 27 28 27 27 26 26 25 24 25 26 25 24 23
23 23 23 23 24 25 25 25 26 25 23 22 23 22 22 21 21 23 23 23 24 25 24 24 24 24 25 25 25 25 25 24 23 22 22 22 22 21 20 20 20 20 20
22 22 22 22 23 23 24 24 24 23 21 21 21 20 21 21 21 22 23 23 24 24 23 23 23 22 22 25 26 25 23 23 23 21 19 18 18 17 16 16 17 17 17
19 19 20 20 21 22 22 23 24 22 21 20 20 21 20 20 19 19 20 21 22 23 23 23 22 23 24 24 24 23 22 22 21 17 15 15 15 14 14 13 13 13 13

GFSMW_sfc_30mbdewp_072.txt.gz
Dewpoint
43 50 55 57 57 57 57 58 59 60 60 59 58 58 57 58 58 60 61 60 60 58 56 55 54 53 52 51 50 48 48 51 52 51 51 51 52 53 53 53 53 53 54
43 52 55 56 56 56 57 56 57 59 60 59 58 59 58 58 58 58 60 61 59 57 56 54 53 51 49 50 50 49 49 51 52 50 49 48 49 51 52 52 52 53 53
40 52 54 55 56 56 56 56 56 58 59 59 58 58 58 58 57 57 58 59 60 58 57 56 51 51 48 49 50 50 48 49 51 51 48 47 47 49 50 51 52 52 52
42 52 54 55 55 56 56 56 56 56 59 59 57 57 56 55 57 57 58 58 59 59 57 56 54 51 49 50 50 50 49 50 49 49 48 48 47 47 46 48 51 52 52
42 51 53 54 55 55 55 55 56 56 57 58 58 57 57 56 57 57 57 58 58 59 59 56 56 53 53 53 51 51 49 49 50 48 47 46 47 47 45 42 45 48 51
43 50 53 54 55 55 55 55 55 54 55 56 57 57 55 55 55 56 56 57 57 57 58 59 56 56 56 54 53 52 50 49 50 49 48 46 46 46 45 43 44 44 46
35 49 53 54 54 54 54 54 54 53 54 55 56 56 55 54 54 55 55 56 56 55 55 57 57 57 55 55 54 52 51 50 50 50 48 48 47 48 47 45 45 44 46
35 47 53 53 53 53 53 54 54 53 54 55 55 55 54 54 55 55 55 56 56 56 56 56 56 56 56 56 55 54 53 53 51 50 51 49 49 48 47 44 43 44 45
32 46 52 53 53 53 53 53 53 53 53 54 55 55 54 54 54 55 55 56 56 56 55 55 56 56 56 56 56 55 55 55 54 53 53 51 50 50 49 48 47 45 42
45 50 53 53 53 53 53 53 53 53 53 53 54 54 54 53 53 54 54 54 55 55 53 54 55 55 56 56 56 55 55 55 55 55 54 53 52 51 51 49 49 47 44
49 51 53 52 53 53 53 53 53 53 53 53 53 54 54 53 52 52 53 53 53 53 52 52 53 54 55 55 55 54 54 54 54 54 53 52 51 50 51 52 51 50 50
47 51 52 53 53 53 53 53 53 53 53 54 53 53 54 54 53 52 51 52 52 52 53 53 52 52 53 54 54 53 52 52 52 53 52 51 51 50 50 51 52 52 52
41 43 45 46 50 52 53 53 53 54 55 54 54 53 54 54 53 53 53 51 52 52 52 52 53 53 52 52 53 53 52 51 51 51 50 51 52 52 52 53 53 53 53
38 39 39 41 43 44 45 45 45 46 47 53 54 54 54 54 54 54 54 53 52 51 51 51 51 51 53 53 53 52 52 52 52 53 52 51 51 50 50 51 51 52 52
33 34 35 36 38 38 38 38 39 40 42 45 45 46 50 55 55 55 55 55 54 53 52 51 51 51 51 51 51 52 52 52 51 51 51 51 52 52 52 51 51 52 52
32 32 32 32 33 34 33 34 36 37 38 38 39 40 41 43 44 45 47 54 55 55 54 53 52 51 51 50 49 49 50 51 51 51 51 51 50 49 48 49 50 49 49
32 32 30 30 31 32 32 32 33 34 34 34 34 34 35 36 37 40 41 42 43 45 47 51 54 54 53 53 50 48 49 50 49 49 49 50 50 50 51 49 47 47 47
32 30 29 29 29 30 31 31 32 32 31 30 30 30 31 32 34 35 35 37 39 42 43 44 44 43 40 34 34 37 48 51 51 51 51 51 50 51 51 51 50 49 48
31 29 28 28 28 29 30 30 29 29 28 27 27 27 29 30 31 31 33 34 36 39 39 36 35 32 32 32 34 35 39 48 51 52 53 52 52 51 50 49 49 50 44
29 27 27 27 27 28 29 28 27 26 26 26 25 26 28 28 29 29 31 33 35 35 34 30 29 28 29 30 32 34 38 41 45 49 34 33 33 35 39 44 49 49 37
26 26 26 26 27 27 27 26 26 25 25 24 24 24 26 27 27 28 29 30 31 29 29 27 27 27 28 28 29 31 33 36 31 29 29 29 31 32 36 32 35 33 27
24 25 25 25 26 26 25 24 24 24 24 24 23 22 23 24 24 25 26 27 28 27 26 26 26 26 26 26 26 26 27 27 25 24 25 26 26 27 27 27 27 26 25
24 24 24 24 25 25 25 25 24 24 23 23 22 21 22 22 23 23 24 24 24 24 24 24 24 24 25 25 25 24 23 23 23 23 22 21 21 20 21 22 22 21 21
23 23 23 23 23 24 24 24 23 22 22 21 21 21 21 21 21 22 23 23 22 21 22 21 21 21 22 23 23 22 21 21 20 20 20 20 19 18 18 17 18 18 17
21 21 21 21 21 22 22 24 22 22 21 21 21 20 20 21 20 22 22 22 24 22 20 21 22 20 21 23 23 22 21 19 19 17 16 15 15 14 14 14 14 14 14
18 18 19 19 19 20 20 21 22 22 21 20 20 19 20 19 19 19 19 20 21 22 22 22 21 23 22 22 22 21 21 19 16 14 13 13 12 12 12 11 11 11 11

GFSMW_sfc_30mbdewp_075.txt.gz
Dewpoint
30 40 52 55 56 58 59 59 59 59 59 58 58 58 58 59 59 61 61 60 60 62 60 58 58 57 55 53 52 52 53 52 53 52 52 52 53 53 53 54 53 53 54
27 43 53 55 56 57 59 58 59 59 60 58 58 58 58 59 59 60 61 61 60 60 59 58 57 56 56 54 52 51 52 52 53 50 50 49 50 52 53 53 53 53 53
26 38 52 54 56 56 58 58 58 59 59 59 59 59 59 58 58 58 59 59 59 58 57 57 56 55 54 53 52 51 51 51 53 52 50 48 47 49 52 53 53 53 53
27 32 50 54 55 56 58 57 57 57 59 59 58 57 56 56 57 57 58 59 59 58 57 55 54 53 52 53 52 51 50 51 51 52 50 51 51 48 48 50 52 53 53
29 39 49 52 55 56 57 56 56 57 58 58 57 56 56 56 57 58 58 58 59 58 58 56 54 52 51 52 52 51 50 51 52 51 50 49 49 51 49 48 49 51 52
32 41 50 53 54 56 56 55 56 56 58 58 58 57 57 56 56 56 57 57 58 59 57 57 55 53 52 52 52 52 51 51 52 52 51 49 48 47 46 45 48 48 48
36 46 51 52 54 55 55 55 55 55 56 57 58 57 56 56 56 56 57 57 57 57 58 57 57 56 54 53 52 52 51 52 51 52 51 51 50 49 47 46 45 42 46
33 46 51 52 54 54 54 54 54 53 54 55 57 57 56 56 56 56 56 56 57 56 57 58 57 57 56 55 54 53 52 52 52 52 52 51 51 51 49 46 45 45 46
44 40 51 53 53 53 53 53 54 53 53 54 55 55 55 55 55 56 56 56 57 57 56 57 57 57 57 56 55 54 53 52 52 52 53 52 51 52 51 50 47 42 40
48 47 52 53 53 53 53 54 54 54 53 53 55 55 55 55 55 55 55 56 57 57 56 56 56 56 57 57 56 55 55 54 54 54 53 53 53 52 52 50 50 49 45
50 51 51 53 53 53 54 53 53 53 53 53 54 55 55 55 55 54 55 55 56 55 55 55 56 56 56 56 56 56 56 55 54 54 53 53 54 54 53 53 52 50 50
45 50 52 53 53 53 53 53 53 52 53 53 53 53 55 55 54 54 54 55 54 55 54 54 55 55 55 56 56 55 55 55 55 54 54 54 54 54 54 53 51 52 51
41 42 44 45 49 51 51 50 51 53 54 54 54 54 53 53 53 54 53 54 54 54 54 53 53 53 54 54 55 55 55 55 54 54 54 54 54 53 52 52 51 51 51
38 38 38 40 41 42 42 43 45 46 52 54 53 53 54 54 54 54 54 53 53 53 53 53 53 53 53 53 53 54 54 54 53 53 53 53 53 53 52 52 52 51 51
33 34 34 35 37 37 39 40 40 41 42 43 43 44 46 47 50 52 54 55 54 53 53 53 53 53 53 54 53 53 53 53 53 53 53 53 53 52 52 51 51 52 51
31 31 31 31 32 33 34 35 36 36 35 35 35 36 38 40 41 43 45 46 46 48 52 53 52 52 48 37 40 47 53 53 53 52 53 53 52 52 50 49 49 50 50
31 29 29 30 30 31 32 32 31 31 31 32 31 32 34 35 36 37 38 40 42 43 44 43 43 40 34 33 35 36 43 49 51 52 52 52 52 52 52 50 48 48 48
31 29 29 29 29 30 30 30 29 28 28 28 28 30 32 32 33 34 36 37 40 41 38 36 34 35 32 32 33 34 40 44 47 50 51 51 50 51 50 51 51 50 49
31 30 29 29 29 29 28 28 27 26 26 26 27 29 29 30 31 32 34 36 37 36 32 31 30 30 30 30 31 33 37 41 43 35 32 32 34 35 36 41 48 50 39
27 27 28 28 28 27 27 26 25 24 24 24 26 27 28 29 29 30 32 32 31 30 29 28 28 28 28 28 29 32 36 36 33 29 28 29 31 31 32 36 38 37 30
26 26 26 26 27 25 25 24 24 24 23 23 24 25 25 27 28 28 29 29 28 28 27 27 27 26 27 26 27 27 28 27 25 24 24 26 26 27 28 27 27 26 25
24 25 24 24 24 25 24 24 23 23 23 22 23 23 24 25 25 26 26 26 26 26 26 25 25 25 25 25 25 24 24 23 22 21 22 23 23 23 23 23 23 22 21
23 23 23 23 23 23 23 22 23 22 23 22 22 22 22 22 23 24 23 23 23 23 22 22 22 23 24 24 23 22 22 22 23 22 21 20 20 20 21 20 19 19 19
21 21 21 21 22 22 23 22 21 21 21 21 21 21 21 21 21 22 22 22 21 21 21 21 22 22 23 24 23 23 23 22 22 20 19 19 18 18 18 19 19 19 18
19 20 20 20 20 20 21 22 21 21 20 20 20 20 20 20 20 21 21 21 23 22 21 21 21 21 21 23 23 23 21 20 18 19 18 18 17 17 16 16 15 16 16
18 18 18 18 19 19 19 20 21 21 20 19 19 19 19 19 18 17 18 20 20 21 21 21 21 22 22 21 20 19 17 16 16 16 16 15 15 14 13 13 12 11 10

GFSMW_sfc_30mbdewp_078.txt.gz
Dewpoint
22 24 34 48 53 56 58 59 60 60 60 60 59 59 60 60 60 61 61 61 61 62 62 61 59 59 57 56 56 55 54 52 52 50 51 52 52 52 51 51 50 49 50
21 23 35 48 53 55 57 58 59 59 59 59 58 59 60 60 61 61 61 61 61 61 61 60 59 58 57 56 56 55 53 52 52 50 50 50 51 52 53 52 51 50 49
22 22 34 48 52 55 57 57 58 59 59 58 58 59 59 59 59 60 59 60 61 60 61 59 59 58 57 56 55 55 53 52 52 50 47 47 45 49 51 52 52 51 51
23 25 29 44 50 54 57 57 58 58 58 57 57 57 56 56 57 57 59 60 60 59 59 59 59 58 58 56 56 54 54 52 51 52 49 47 44 46 48 51 52 52 52
23 27 30 38 48 53 57 58 58 58 57 56 56 56 57 56 57 58 58 59 59 58 58 58 58 58 58 57 56 54 54 53 51 51 51 51 50 48 44 45 50 52 52
32 31 32 42 48 54 57 57 57 57 57 56 57 57 56 56 56 57 57 58 58 58 58 57 57 56 56 56 56 54 54 53 52 52 52 50 49 48 45 44 46 48 51
38 34 40 45 49 54 57 57 56 56 57 56 55 56 55 56 56 56 56 58 58 57 57 57 56 55 54 55 55 55 54 53 52 52 51 52 50 48 47 45 42 44 46
42 35 43 47 50 54 55 56 56 55 56 55 54 57 57 57 56 56 56 57 57 58 59 57 56 55 54 54 54 54 54 54 53 53 53 52 53 51 49 47 46 41 42
47 40 44 49 51 53 54 56 55 55 55 55 55 57 57 57 56 57 57 56 57 57 58 58 58 57 55 54 53 53 52 53 54 53 54 53 51 52 51 50 47 45 44
49 45 47 51 52 53 54 56 55 54 55 54 55 54 55 56 56 56 55 54 56 56 57 57 57 57 57 56 55 53 53 53 52 53 53 53 52 52 52 51 51 50 49
46 49 50 51 52 53 54 55 54 54 54 54 55 54 53 54 55 55 54 55 56 57 56 56 57 57 57 56 56 55 53 53 53 53 53 52 53 53 53 53 52 52 51
43 45 51 52 53 53 54 54 54 54 54 54 54 54 54 54 55 54 55 55 55 56 56 56 56 56 56 57 56 56 55 54 52 52 53 53 54 54 54 54 53 53 52
39 40 42 43 44 48 52 53 53 53 54 53 53 53 53 54 54 54 54 55 55 55 55 55 55 56 56 56 56 56 56 56 56 55 53 53 52 51 52 53 52 52 52
36 36 36 38 40 42 43 45 47 52 53 53 52 51 53 54 54 54 54 54 54 54 54 54 54 54 54 55 56 55 55 56 55 55 55 55 54 54 53 54 54 53 53
33 33 34 35 36 37 39 40 39 42 43 42 43 43 44 46 47 49 49 53 54 54 54 54 54 54 48 38 43 53 54 55 54 54 55 54 54 54 54 54 54 54 53
31 31 31 32 33 34 35 35 36 36 36 36 37 38 39 40 41 42 43 45 46 47 45 45 43 40 36 34 35 38 48 52 53 53 53 54 53 52 51 51 51 51 52
30 30 30 31 31 31 31 31 32 32 32 33 34 35 36 36 37 39 40 42 42 40 38 38 38 34 32 32 33 33 38 44 48 50 48 50 52 51 51 52 49 49 48
32 30 30 30 29 29 29 28 27 28 29 30 30 32 33 35 36 38 39 40 37 35 34 33 33 32 30 30 31 33 39 43 37 32 33 35 36 35 35 39 45 50 36
30 31 30 30 28 27 27 26 26 26 26 27 28 29 31 32 34 35 35 35 34 32 31 30 30 31 29 29 30 37 42 35 31 29 29 30 30 30 31 38 40 38 29
30 28 28 27 27 28 26 25 25 25 25 26 26 28 29 30 31 32 32 32 31 30 29 29 29 28 28 27 28 32 33 30 28 26 26 26 27 27 28 32 35 27 25
29 29 27 26 25 26 26 25 24 23 25 25 26 27 28 29 29 30 30 30 29 29 29 28 27 26 26 26 26 27 28 26 25 24 24 25 25 25 25 25 25 23 23
27 25 24 24 24 24 24 23 24 24 24 24 24 25 26 26 27 28 27 28 27 27 26 26 26 26 25 24 24 24 25 26 26 25 24 24 23 23 23 24 22 22 22
23 23 23 23 23 22 22 22 23 23 23 23 23 23 23 24 24 24 25 25 25 25 25 25 25 25 26 26 24 23 23 23 24 23 22 22 22 23 23 21 23 25 25
21 21 21 21 21 22 22 22 22 22 22 22 21 22 22 22 22 22 23 24 24 24 24 24 24 24 24 25 26 25 25 25 24 24 23 23 23 21 21 22 22 21 21
23 20 20 20 20 21 21 22 22 21 21 21 22 21 21 21 21 22 22 21 23 24 23 23 23 23 21 22 21 21 23 23 22 23 23 22 21 20 20 19 17 17 18
20 20 20 20 20 20 21 21 22 22 22 21 22 22 21 21 20 19 18 20 20 21 20 21 23 21 20 20 19 18 18 18 20 21 20 18 17 15 13 13 12 11 10

GFSMW_sfc_30mbdewp_081.txt.gz
Dewpoint
21 19 23 31 42 49 55 59 60 60 60 59 59 59 59 60 61 61 62 62 62 62 62 61 60 60 60 59 60 58 55 54 53 51 51 52 53 52 47 47 46 47 48
23 21 22 32 46 50 55 58 60 60 59 58 58 58 59 59 60 61 61 61 61 62 62 61 60 60 59 58 58 58 55 53 53 50 50 50 52 52 52 50 48 48 48
24 21 21 32 47 50 55 57 59 59 59 57 58 58 59 59 59 59 60 60 60 60 61 60 60 59 58 57 57 58 55 52 53 51 49 48 46 49 52 52 52 50 49
25 23 19 30 45 49 54 57 58 58 58 58 57 58 57 56 57 57 59 59 60 61 61 60 59 59 58 57 57 58 57 53 52 52 50 48 43 46 48 51 52 50 49
25 22 21 23 42 49 54 57 57 57 57 57 56 55 54 55 56 56 58 60 59 60 60 60 59 58 58 57 57 58 56 54 52 51 50 50 49 49 47 47 50 52 50
25 25 20 21 38 48 54 57 57 57 57 57 56 54 54 55 56 56 58 59 59 58 58 59 59 59 58 58 57 58 56 54 53 53 52 50 49 49 45 44 47 49 50
36 32 27 28 35 47 54 56 56 56 56 56 56 54 54 56 56 56 57 58 57 57 57 57 58 58 59 59 58 58 56 55 54 54 52 52 52 50 48 48 44 46 48
46 40 33 33 41 48 54 56 56 56 56 56 55 54 54 55 55 56 56 57 57 58 58 57 57 57 57 58 58 57 56 56 55 54 54 53 53 52 52 49 48 43 43
46 46 37 43 45 51 57 56 55 56 56 55 55 54 54 54 55 56 57 58 58 58 58 57 56 56 56 56 57 57 56 56 56 55 54 54 53 54 53 50 48 49 45
45 49 43 46 48 55 56 56 56 56 56 55 54 55 55 55 56 57 56 56 56 56 58 58 57 56 55 55 55 55 55 54 54 55 54 54 54 54 53 51 50 51 49
41 45 49 50 54 55 55 57 55 56 56 55 54 54 55 55 56 56 55 55 56 56 57 57 58 57 56 55 54 53 53 52 52 53 53 53 54 53 52 51 52 52 51
39 41 45 47 53 54 55 55 55 54 55 54 55 54 54 54 55 54 54 55 55 56 56 56 56 57 57 57 56 55 53 52 51 52 52 52 52 52 51 52 52 52 52
36 37 39 41 44 46 50 52 55 55 55 55 55 54 54 55 54 54 55 55 55 55 56 56 56 56 56 57 56 56 55 54 53 53 53 52 52 52 52 53 52 52 52
34 35 35 37 39 41 42 43 45 50 53 53 52 52 53 54 54 54 55 56 56 55 55 55 55 55 55 53 55 56 56 56 56 56 55 53 51 51 53 53 53 52 52
32 32 33 34 35 37 38 39 40 41 44 44 44 44 45 46 47 48 50 52 50 50 50 53 46 41 38 36 39 46 54 56 56 56 56 56 56 55 54 53 52 53 53
32 31 32 32 32 33 35 35 37 37 39 39 39 40 41 42 43 44 45 43 42 42 42 39 37 36 34 33 34 36 47 51 51 51 49 50 43 44 44 45 46 47 49
32 31 32 31 31 31 31 34 35 37 36 36 36 38 39 40 41 42 40 39 37 37 36 36 34 31 31 32 33 34 41 41 37 36 37 39 37 34 35 39 42 35 33
32 31 31 29 30 30 31 31 32 32 33 33 35 36 37 38 39 39 37 36 35 34 34 34 32 30 30 31 34 38 38 34 31 30 31 32 31 30 32 36 40 31 29
30 31 32 30 29 27 27 28 28 30 29 30 30 32 34 35 35 35 35 34 33 32 31 31 31 29 28 29 33 38 34 31 29 28 28 28 28 28 32 37 34 28 27
30 31 31 31 32 31 27 26 26 26 27 28 29 30 31 32 32 33 33 32 32 31 30 29 28 29 27 28 30 32 31 29 27 27 26 26 27 27 29 31 29 25 24
29 30 31 31 31 32 31 29 27 26 26 27 28 28 30 31 31 32 32 31 31 30 29 28 27 26 27 26 27 29 29 28 27 26 25 26 25 25 25 25 25 24 24
31 31 30 28 26 25 26 25 27 29 29 28 26 27 28 28 29 30 31 30 29 28 28 27 28 28 26 25 25 25 26 27 26 25 25 25 24 24 25 26 27 27 28
28 25 23 23 23 23 23 24 24 24 24 25 26 27 27 27 28 29 29 29 29 29 28 27 26 26 28 28 26 25 24 24 25 25 24 24 23 23 24 22 23 25 26
24 22 22 22 22 22 22 23 23 23 23 22 22 23 23 23 23 23 24 25 27 26 27 27 25 25 24 24 27 27 27 27 27 26 26 25 25 24 22 23 23 23 22
27 22 21 22 22 22 23 22 23 23 23 23 23 22 22 21 20 21 22 22 23 24 24 23 23 22 21 21 21 22 24 25 25 26 24 23 22 21 20 18 18 16 17
25 23 22 21 21 22 22 24 25 24 23 23 23 24 23 21 20 18 18 19 20 20 20 21 23 20 20 19 19 19 19 21 22 22 20 19 18 16 15 14 13 12 12

GFSMW_sfc_30mbdewp_084.txt.gz
Dewpoint
26 24 24 21 28 41 56 62 62 62 63 61 60 60 60 61 62 62 62 62 63 63 63 62 62 61 60 60 60 60 59 59 56 53 53 53 54 50 50 52 53 53 54
26 26 24 26 38 49 55 62 62 62 62 61 60 59 59 60 60 61 61 62 62 62 62 62 61 60 60 60 59 59 58 58 55 51 51 49 50 52 52 51 49 52 52
26 27 26 27 43 50 56 60 61 61 61 59 59 59 59 59 57 59 61 61 62 61 62 62 60 60 60 59 59 59 58 56 55 51 49 49 48 50 53 51 52 52 51
19 26 27 26 46 49 57 59 60 60 60 59 58 58 57 57 57 58 60 60 61 61 61 61 60 60 60 59 59 59 58 57 53 53 51 49 49 48 50 52 52 54 50
22 25 27 26 47 50 57 59 60 59 59 59 58 58 57 57 57 58 59 59 60 61 62 60 60 59 59 59 59 59 58 58 54 52 51 49 51 49 50 49 52 53 52
23 25 28 27 42 50 56 59 59 59 59 59 59 58 56 55 56 57 58 59 58 58 59 60 59 59 59 58 58 59 58 58 56 54 52 51 50 49 49 49 51 50 51
46 48 44 27 30 50 56 58 58 58 58 58 58 57 56 55 56 57 58 58 57 57 57 59 59 58 58 58 57 58 58 57 56 54 52 53 52 51 51 50 50 51 51
45 47 48 50 38 52 57 58 57 57 58 58 57 57 57 56 56 57 58 58 57 57 58 58 58 58 59 58 58 57 58 57 56 54 54 53 53 53 52 51 50 48 48
43 45 47 50 40 52 57 57 57 56 57 58 57 56 56 56 57 57 58 58 58 58 58 57 57 57 58 59 58 57 57 57 56 55 54 54 54 54 53 53 53 50 47
41 42 44 48 55 55 58 58 57 56 57 57 57 55 56 55 56 57 58 58 59 58 58 57 56 56 57 57 58 57 57 57 56 56 55 54 54 55 54 53 53 52 50
38 39 41 44 49 56 57 57 57 57 56 57 56 56 55 56 57 57 57 56 57 58 58 58 56 56 56 56 56 56 56 56 55 54 54 54 55 54 54 53 51 52 49
37 37 38 40 43 46 52 56 56 57 56 56 56 55 55 56 57 56 56 56 56 57 57 58 57 56 55 55 55 54 54 54 54 54 54 54 54 54 54 54 53 51 50
35 35 36 36 38 40 42 45 51 56 56 56 55 55 55 55 55 55 55 56 56 56 56 57 57 57 56 55 55 54 54 53 52 52 52 52 53 51 51 52 51 52 52
33 33 34 34 35 37 38 40 43 49 53 52 51 51 52 53 53 55 55 56 56 56 56 54 48 47 44 45 49 55 55 54 54 53 53 53 52 51 51 50 51 52 51
32 32 32 32 33 34 36 38 39 41 45 46 45 46 47 48 49 48 47 47 47 45 45 42 40 38 36 35 38 45 53 56 55 55 55 49 43 42 43 51 50 52 52
32 32 31 31 32 32 34 35 38 39 40 41 42 42 43 44 43 42 41 40 40 39 37 35 35 35 34 34 35 39 48 43 43 41 41 41 36 37 38 36 35 36 44
32 31 31 31 31 32 33 33 34 36 38 39 40 41 42 40 39 38 37 37 36 35 34 33 32 32 33 35 38 38 36 34 33 34 34 34 33 32 34 36 32 31 31
30 30 31 31 31 31 31 32 32 33 34 35 37 39 39 39 38 36 35 34 34 34 33 32 31 30 32 37 35 34 32 30 29 29 30 30 30 31 34 36 30 28 28
30 30 31 31 32 31 30 30 31 32 32 33 34 35 36 37 36 35 35 34 33 32 31 31 30 29 30 33 35 33 30 29 28 28 28 28 28 30 36 32 28 26 26
30 30 31 31 31 31 31 30 30 31 31 32 33 33 34 34 34 34 33 32 31 30 29 27 28 28 28 30 31 31 29 27 26 26 27 27 27 27 28 27 25 24 24
30 31 31 31 31 31 31 29 30 30 31 31 32 33 33 33 32 32 32 31 30 29 28 27 26 26 27 28 29 30 29 27 25 25 25 25 25 26 27 26 25 25 26
30 31 30 31 32 32 32 30 28 30 30 30 31 31 32 33 33 32 32 31 30 29 29 28 28 28 27 26 26 26 26 26 25 25 26 25 24 24 25 26 27 28 27
31 31 30 28 25 27 28 27 29 31 31 31 30 29 30 29 28 27 29 29 30 29 27 26 25 25 26 29 27 26 25 26 26 26 25 24 23 23 23 23 23 25 25
29 28 25 23 23 23 23 23 24 23 24 23 23 22 22 23 24 24 24 23 27 26 27 26 24 23 22 23 26 28 28 28 28 27 26 25 25 23 21 21 20 21 22
27 27 26 24 24 24 25 27 24 25 24 24 23 22 21 20 20 22 22 21 23 24 23 22 22 20 20 22 22 24 25 25 26 26 24 22 21 19 19 18 17 17 17
24 24 24 24 23 23 24 25 27 26 25 25 26 25 22 20 19 18 19 20 20 20 20 21 21 21 20 19 19 20 21 22 24 22 20 19 17 15 15 15 15 14 13